Observation data for Big Lake on 02/13/2018      Previous  Date  Next       Current Mesonet Observations  Soil Data  Daily Summary Page  Observations in Plain Language
KBI1 130600Z 16011KT 04/M03 A3022 RMK A01 T00431030  RH  059%=      5-min Rain = 0
KBI1 130601Z 16010KT 04/M03 A3022 RMK A01 T00431031  RH  058%=      5-min Rain = 0
KBI1 130602Z 16010KT 04/M03 A3023 RMK A01 T00441031  RH  058%=      5-min Rain = 0
KBI1 130603Z 16009KT 04/M03 A3023 RMK A01 T00441031  RH  058%=      5-min Rain = 0
KBI1 130604Z 16009KT 04/M03 A3023 RMK A01 T00441031  RH  058%=      5-min Rain = 0
KBI1 130605Z 17010KT 04/M03 A3023 RMK A01 T00441031  RH  058%=      5-min Rain = 0
KBI1 130606Z 16011KT 04/M03 A3022 RMK A01 T00431032  RH  058%=      5-min Rain = 0
KBI1 130607Z 16010KT 04/M03 A3023 RMK A01 T00441032  RH  058%=      5-min Rain = 0
KBI1 130608Z 16012KT 04/M03 A3022 RMK A01 T00441032  RH  058%=      5-min Rain = 0
KBI1 130609Z 16010KT 04/M03 A3022 RMK A01 T00441033  RH  057%=      5-min Rain = 0
KBI1 130610Z 16011KT 04/M03 A3022 RMK A01 T00441032  RH  057%=      5-min Rain = 0
KBI1 130611Z 16010KT 04/M03 A3022 RMK A01 T00441032  RH  057%=      5-min Rain = 0
KBI1 130612Z 16011KT 05/M03 A3022 RMK A01 T00451032  RH  057%=      5-min Rain = 0
KBI1 130613Z 16010KT 05/M03 A3022 RMK A01 T00451033  RH  057%=      5-min Rain = 0
KBI1 130614Z 16010KT 04/M03 A3022 RMK A01 T00441033  RH  057%=      5-min Rain = 0
KBI1 130615Z 16010KT 05/M03 A3022 RMK A01 T00451033  RH  057%=      5-min Rain = 0
KBI1 130616Z 16011KT 05/M03 A3022 RMK A01 T00451032  RH  057%=      5-min Rain = 0
KBI1 130617Z 16011KT 04/M03 A3022 RMK A01 T00441032  RH  057%=      5-min Rain = 0
KBI1 130618Z 16010KT 04/M03 A3022 RMK A01 T00441032  RH  058%=      5-min Rain = 0
KBI1 130619Z 16010KT 04/M03 A3022 RMK A01 T00431033  RH  058%=      5-min Rain = 0
KBI1 130620Z 16011KT 04/M03 A3022 RMK A01 T00431033  RH  058%=      5-min Rain = 0
KBI1 130621Z 16010KT 04/M03 A3022 RMK A01 T00421033  RH  058%=      5-min Rain = 0
KBI1 130622Z 16009KT 04/M03 A3022 RMK A01 T00421033  RH  058%=      5-min Rain = 0
KBI1 130623Z 16009KT 04/M03 A3022 RMK A01 T00421033  RH  058%=      5-min Rain = 0
KBI1 130624Z 16010KT 04/M03 A3022 RMK A01 T00421033  RH  058%=      5-min Rain = 0
KBI1 130625Z 16010KT 04/M03 A3022 RMK A01 T00421032  RH  058%=      5-min Rain = 0
KBI1 130626Z 16008KT 04/M03 A3022 RMK A01 T00411033  RH  058%=      5-min Rain = 0
KBI1 130627Z 16008KT 04/M03 A3022 RMK A01 T00411033  RH  058%=      5-min Rain = 0
KBI1 130628Z 16007KT 04/M03 A3022 RMK A01 T00411033  RH  059%=      5-min Rain = 0
KBI1 130629Z 16007KT 04/M03 A3022 RMK A01 T00411033  RH  059%=      5-min Rain = 0
KBI1 130630Z 16008KT 04/M03 A3022 RMK A01 T00401034  RH  059%=      5-min Rain = 0
KBI1 130631Z 16007KT 04/M03 A3022 RMK A01 T00401033  RH  059%=      5-min Rain = 0
KBI1 130632Z 16006KT 04/M03 A3022 RMK A01 T00401033  RH  059%=      5-min Rain = 0
KBI1 130633Z 16007KT 04/M03 A3022 RMK A01 T00391033  RH  059%=      5-min Rain = 0
KBI1 130634Z 16007KT 04/M03 A3022 RMK A01 T00391033  RH  059%=      5-min Rain = 0
KBI1 130635Z 16006KT 04/M03 A3022 RMK A01 T00391033  RH  059%=      5-min Rain = 0
KBI1 130636Z 16005KT 04/M03 A3022 RMK A01 T00391033  RH  059%=      5-min Rain = 0
KBI1 130637Z 16006KT 04/M03 A3022 RMK A01 T00381034  RH  059%=      5-min Rain = 0
KBI1 130638Z 17006KT 04/M03 A3022 RMK A01 T00371034  RH  060%=      5-min Rain = 0
KBI1 130639Z 17005KT 04/M03 A3022 RMK A01 T00371034  RH  060%=      5-min Rain = 0
KBI1 130640Z 17006KT 04/M03 A3022 RMK A01 T00361034  RH  060%=      5-min Rain = 0
KBI1 130641Z 17006KT 04/M04 A3022 RMK A01 T00351035  RH  060%=      5-min Rain = 0
KBI1 130642Z 16006KT 04/M03 A3022 RMK A01 T00351034  RH  060%=      5-min Rain = 0
KBI1 130643Z 16006KT 04/M03 A3022 RMK A01 T00351034  RH  061%=      5-min Rain = 0
KBI1 130644Z 16006KT 03/M04 A3022 RMK A01 T00341035  RH  061%=      5-min Rain = 0
KBI1 130645Z 17006KT 04/M03 A3022 RMK A01 T00351034  RH  061%=      5-min Rain = 0
KBI1 130646Z 16006KT 04/M03 A3022 RMK A01 T00351034  RH  060%=      5-min Rain = 0
KBI1 130647Z 16007KT 04/M03 A3022 RMK A01 T00351034  RH  060%=      5-min Rain = 0
KBI1 130648Z 16008KT 04/M03 A3022 RMK A01 T00351034  RH  060%=      5-min Rain = 0
KBI1 130649Z 16007KT 04/M04 A3022 RMK A01 T00351035  RH  060%=      5-min Rain = 0
KBI1 130650Z 16007KT 04/M03 A3022 RMK A01 T00361034  RH  060%=      5-min Rain = 0
KBI1 130651Z 16007KT 04/M04 A3022 RMK A01 T00361035  RH  060%=      5-min Rain = 0
KBI1 130652Z 16007KT 04/M04 A3022 RMK A01 T00361035  RH  060%=      5-min Rain = 0
KBI1 130653Z 16007KT 04/M04 A3022 RMK A01 T00361035  RH  060%=      5-min Rain = 0
KBI1 130654Z 15006KT 04/M04 A3022 RMK A01 T00361035  RH  060%=      5-min Rain = 0
KBI1 130655Z 16007KT 04/M04 A3022 RMK A01 T00371035  RH  059%=      5-min Rain = 0
KBI1 130656Z 15008KT 04/M04 A3022 RMK A01 T00371035  RH  059%=      5-min Rain = 0
KBI1 130657Z 16007KT 04/M04 A3022 RMK A01 T00371035  RH  059%=      5-min Rain = 0
KBI1 130658Z 16007KT 04/M04 A3022 RMK A01 T00371035  RH  059%=      5-min Rain = 0
KBI1 130659Z 16008KT 04/M04 A3022 RMK A01 T00371035  RH  059%=      5-min Rain = 0
KBI1 130700Z 16008KT 04/M04 A3022 RMK A01 T00371035  RH  059%=      5-min Rain = 0
KBI1 130701Z 16006KT 04/M04 A3022 RMK A01 T00381035  RH  059%=      5-min Rain = 0
KBI1 130702Z 16006KT 04/M04 A3022 RMK A01 T00381035  RH  059%=      5-min Rain = 0
KBI1 130703Z 16007KT 04/M04 A3022 RMK A01 T00371036  RH  059%=      5-min Rain = 0
KBI1 130704Z 17007KT 04/M04 A3022 RMK A01 T00371036  RH  059%=      5-min Rain = 0
KBI1 130705Z 16006KT 04/M04 A3022 RMK A01 T00371036  RH  059%=      5-min Rain = 0
KBI1 130706Z 16007KT 04/M04 A3022 RMK A01 T00371036  RH  059%=      5-min Rain = 0
KBI1 130707Z 16006KT 04/M04 A3022 RMK A01 T00361036  RH  059%=      5-min Rain = 0
KBI1 130708Z 16007KT 04/M04 A3022 RMK A01 T00361036  RH  059%=      5-min Rain = 0
KBI1 130709Z 16008KT 04/M04 A3022 RMK A01 T00361036  RH  059%=      5-min Rain = 0
KBI1 130710Z 16009KT 04/M04 A3022 RMK A01 T00371036  RH  059%=      5-min Rain = 0
KBI1 130711Z 17009KT 04/M04 A3022 RMK A01 T00371036  RH  059%=      5-min Rain = 0
KBI1 130712Z 16008KT 04/M04 A3022 RMK A01 T00371035  RH  059%=      5-min Rain = 0
KBI1 130713Z 16009KT 04/M04 A3022 RMK A01 T00371036  RH  059%=      5-min Rain = 0
KBI1 130714Z 16010KT 04/M04 A3022 RMK A01 T00371036  RH  059%=      5-min Rain = 0
KBI1 130715Z 16009KT 04/M04 A3022 RMK A01 T00371036  RH  059%=      5-min Rain = 0
KBI1 130716Z 16009KT 04/M04 A3022 RMK A01 T00371036  RH  059%=      5-min Rain = 0
KBI1 130717Z 16010KT 04/M04 A3022 RMK A01 T00371036  RH  059%=      5-min Rain = 0
KBI1 130718Z 16009KT 04/M04 A3022 RMK A01 T00371036  RH  059%=      5-min Rain = 0
KBI1 130719Z 16009KT 04/M04 A3022 RMK A01 T00371036  RH  059%=      5-min Rain = 0
KBI1 130720Z 16010KT 04/M04 A3022 RMK A01 T00371036  RH  059%=      5-min Rain = 0
KBI1 130721Z 16009KT 04/M04 A3022 RMK A01 T00371036  RH  059%=      5-min Rain = 0
KBI1 130722Z 16009KT 04/M04 A3022 RMK A01 T00371036  RH  059%=      5-min Rain = 0
KBI1 130723Z 16009KT 04/M04 A3022 RMK A01 T00371036  RH  059%=      5-min Rain = 0
KBI1 130724Z 16009KT 04/M04 A3022 RMK A01 T00371036  RH  059%=      5-min Rain = 0
KBI1 130725Z 16009KT 04/M04 A3022 RMK A01 T00371036  RH  059%=      5-min Rain = 0
KBI1 130726Z 16008KT 04/M04 A3022 RMK A01 T00371036  RH  059%=      5-min Rain = 0
KBI1 130727Z 16008KT 04/M04 A3022 RMK A01 T00371036  RH  059%=      5-min Rain = 0
KBI1 130728Z 15008KT 04/M04 A3022 RMK A01 T00371036  RH  059%=      5-min Rain = 0
KBI1 130729Z 15008KT 04/M04 A3022 RMK A01 T00371036  RH  059%=      5-min Rain = 0
KBI1 130730Z 16009KT 04/M04 A3022 RMK A01 T00371036  RH  059%=      5-min Rain = 0
KBI1 130731Z 16009KT 04/M04 A3022 RMK A01 T00371036  RH  059%=      5-min Rain = 0
KBI1 130732Z 16007KT 04/M04 A3022 RMK A01 T00371036  RH  059%=      5-min Rain = 0
KBI1 130733Z 16008KT 04/M04 A3022 RMK A01 T00371036  RH  059%=      5-min Rain = 0
KBI1 130734Z 16008KT 04/M04 A3022 RMK A01 T00371036  RH  059%=      5-min Rain = 0
KBI1 130735Z 16007KT 04/M04 A3022 RMK A01 T00371036  RH  059%=      5-min Rain = 0
KBI1 130736Z 16007KT 04/M04 A3022 RMK A01 T00371036  RH  059%=      5-min Rain = 0
KBI1 130737Z 15007KT 04/M04 A3022 RMK A01 T00371036  RH  059%=      5-min Rain = 0
KBI1 130738Z 15007KT 04/M04 A3022 RMK A01 T00361036  RH  059%=      5-min Rain = 0
KBI1 130739Z 15006KT 04/M04 A3022 RMK A01 T00361036  RH  059%=      5-min Rain = 0
KBI1 130740Z 15006KT 04/M04 A3022 RMK A01 T00361036  RH  059%=      5-min Rain = 0
KBI1 130741Z 15006KT 04/M04 A3022 RMK A01 T00361036  RH  059%=      5-min Rain = 0
KBI1 130742Z 14005KT 04/M04 A3022 RMK A01 T00361036  RH  059%=      5-min Rain = 0
KBI1 130743Z 15005KT 04/M04 A3023 RMK A01 T00361037  RH  059%=      5-min Rain = 0
KBI1 130744Z 15004KT 04/M04 A3023 RMK A01 T00351037  RH  059%=      5-min Rain = 0
KBI1 130745Z 15005KT 04/M04 A3023 RMK A01 T00351037  RH  059%=      5-min Rain = 0
KBI1 130746Z 15005KT 04/M04 A3023 RMK A01 T00351037  RH  059%=      5-min Rain = 0
KBI1 130747Z 14006KT 04/M04 A3023 RMK A01 T00351037  RH  060%=      5-min Rain = 0
KBI1 130748Z 14006KT 04/M04 A3023 RMK A01 T00351037  RH  060%=      5-min Rain = 0
KBI1 130749Z 15006KT 04/M04 A3023 RMK A01 T00351037  RH  060%=      5-min Rain = 0
KBI1 130750Z 14006KT 04/M04 A3023 RMK A01 T00351037  RH  059%=      5-min Rain = 0
KBI1 130751Z 14004KT 04/M04 A3023 RMK A01 T00351037  RH  059%=      5-min Rain = 0
KBI1 130752Z 15004KT 04/M04 A3023 RMK A01 T00351037  RH  059%=      5-min Rain = 0
KBI1 130753Z 15004KT 04/M04 A3023 RMK A01 T00351037  RH  059%=      5-min Rain = 0
KBI1 130754Z 15005KT 04/M04 A3023 RMK A01 T00351037  RH  059%=      5-min Rain = 0
KBI1 130755Z 15004KT 03/M04 A3023 RMK A01 T00341037  RH  059%=      5-min Rain = 0
KBI1 130756Z 15004KT 03/M04 A3023 RMK A01 T00341037  RH  060%=      5-min Rain = 0
KBI1 130757Z 15004KT 03/M04 A3023 RMK A01 T00341037  RH  060%=      5-min Rain = 0
KBI1 130758Z 14004KT 03/M04 A3023 RMK A01 T00341037  RH  060%=      5-min Rain = 0
KBI1 130759Z 14005KT 03/M04 A3023 RMK A01 T00341037  RH  060%=      5-min Rain = 0
KBI1 130800Z 15006KT 03/M04 A3023 RMK A01 T00341037  RH  060%=      5-min Rain = 0
KBI1 130801Z 15006KT 03/M04 A3023 RMK A01 T00341036  RH  060%=      5-min Rain = 0
KBI1 130802Z 15007KT 03/M04 A3023 RMK A01 T00341037  RH  060%=      5-min Rain = 0
KBI1 130803Z 14005KT 03/M04 A3023 RMK A01 T00341037  RH  060%=      5-min Rain = 0
KBI1 130804Z 15005KT 03/M04 A3023 RMK A01 T00341037  RH  060%=      5-min Rain = 0
KBI1 130805Z 15005KT 03/M04 A3023 RMK A01 T00341037  RH  060%=      5-min Rain = 0
KBI1 130806Z 15006KT 03/M04 A3023 RMK A01 T00331037  RH  060%=      5-min Rain = 0
KBI1 130807Z 15006KT 03/M04 A3023 RMK A01 T00331037  RH  060%=      5-min Rain = 0
KBI1 130808Z 15006KT 03/M04 A3023 RMK A01 T00331037  RH  060%=      5-min Rain = 0
KBI1 130809Z 15005KT 03/M04 A3023 RMK A01 T00331037  RH  060%=      5-min Rain = 0
KBI1 130810Z 15006KT 03/M04 A3023 RMK A01 T00331037  RH  060%=      5-min Rain = 0
KBI1 130811Z 15006KT 03/M04 A3023 RMK A01 T00331037  RH  060%=      5-min Rain = 0
KBI1 130812Z 15006KT 03/M04 A3023 RMK A01 T00331037  RH  060%=      5-min Rain = 0
KBI1 130813Z 15005KT 03/M04 A3023 RMK A01 T00331037  RH  060%=      5-min Rain = 0
KBI1 130814Z 15007KT 03/M04 A3023 RMK A01 T00321037  RH  060%=      5-min Rain = 0
KBI1 130815Z 15006KT 03/M04 A3023 RMK A01 T00321037  RH  060%=      5-min Rain = 0
KBI1 130816Z 15006KT 03/M04 A3023 RMK A01 T00321037  RH  061%=      5-min Rain = 0
KBI1 130817Z 15005KT 03/M04 A3023 RMK A01 T00321037  RH  061%=      5-min Rain = 0
KBI1 130818Z 15005KT 03/M04 A3023 RMK A01 T00321037  RH  061%=      5-min Rain = 0
KBI1 130819Z 15006KT 03/M04 A3023 RMK A01 T00321037  RH  061%=      5-min Rain = 0
KBI1 130820Z 15006KT 03/M04 A3023 RMK A01 T00311037  RH  061%=      5-min Rain = 0
KBI1 130821Z 16007KT 03/M04 A3023 RMK A01 T00311037  RH  061%=      5-min Rain = 0
KBI1 130822Z 15007KT 03/M04 A3023 RMK A01 T00311037  RH  061%=      5-min Rain = 0
KBI1 130823Z 15007KT 03/M04 A3023 RMK A01 T00311037  RH  061%=      5-min Rain = 0
KBI1 130824Z 15008KT 03/M04 A3023 RMK A01 T00321037  RH  061%=      5-min Rain = 0
KBI1 130825Z 15006KT 03/M04 A3023 RMK A01 T00321036  RH  061%=      5-min Rain = 0
KBI1 130826Z 15007KT 03/M04 A3023 RMK A01 T00321036  RH  061%=      5-min Rain = 0
KBI1 130827Z 15006KT 03/M04 A3023 RMK A01 T00321036  RH  061%=      5-min Rain = 0
KBI1 130828Z 15005KT 03/M04 A3023 RMK A01 T00331036  RH  061%=      5-min Rain = 0
KBI1 130829Z 15006KT 03/M04 A3023 RMK A01 T00331035  RH  061%=      5-min Rain = 0
KBI1 130830Z 16007KT 03/M04 A3023 RMK A01 T00341036  RH  060%=      5-min Rain = 0
KBI1 130831Z 15007KT 03/M04 A3023 RMK A01 T00341036  RH  060%=      5-min Rain = 0
KBI1 130832Z 15007KT 03/M04 A3023 RMK A01 T00341036  RH  060%=      5-min Rain = 0
KBI1 130833Z 15006KT 03/M04 A3023 RMK A01 T00341036  RH  060%=      5-min Rain = 0
KBI1 130834Z 14004KT 03/M04 A3023 RMK A01 T00341036  RH  060%=      5-min Rain = 0
KBI1 130835Z 15005KT 03/M04 A3023 RMK A01 T00341036  RH  060%=      5-min Rain = 0
KBI1 130836Z 15006KT 03/M04 A3022 RMK A01 T00341036  RH  060%=      5-min Rain = 0
KBI1 130837Z 14006KT 03/M04 A3022 RMK A01 T00341036  RH  060%=      5-min Rain = 0
KBI1 130838Z 15005KT 03/M04 A3022 RMK A01 T00341036  RH  060%=      5-min Rain = 0
KBI1 130839Z 15006KT 03/M04 A3022 RMK A01 T00341036  RH  060%=      5-min Rain = 0
KBI1 130840Z 15005KT 03/M04 A3022 RMK A01 T00341036  RH  060%=      5-min Rain = 0
KBI1 130841Z 14005KT 03/M04 A3022 RMK A01 T00341036  RH  060%=      5-min Rain = 0
KBI1 130842Z 14005KT 03/M04 A3022 RMK A01 T00341036  RH  060%=      5-min Rain = 0
KBI1 130843Z 15004KT 03/M04 A3022 RMK A01 T00341036  RH  060%=      5-min Rain = 0
KBI1 130844Z 15005KT 03/M04 A3022 RMK A01 T00341036  RH  060%=      5-min Rain = 0
KBI1 130845Z 15004KT 03/M04 A3022 RMK A01 T00331036  RH  060%=      5-min Rain = 0
KBI1 130846Z 15005KT 03/M04 A3022 RMK A01 T00331036  RH  061%=      5-min Rain = 0
KBI1 130847Z 15006KT 03/M04 A3022 RMK A01 T00331035  RH  061%=      5-min Rain = 0
KBI1 130848Z 15005KT 03/M04 A3022 RMK A01 T00331035  RH  061%=      5-min Rain = 0
KBI1 130849Z 15006KT 03/M04 A3022 RMK A01 T00331035  RH  061%=      5-min Rain = 0
KBI1 130850Z 15006KT 03/M03 A3022 RMK A01 T00341034  RH  061%=      5-min Rain = 0
KBI1 130851Z 14005KT 03/M03 A3021 RMK A01 T00341034  RH  061%=      5-min Rain = 0
KBI1 130852Z 14005KT 03/M03 A3022 RMK A01 T00341034  RH  061%=      5-min Rain = 0
KBI1 130853Z 15005KT 04/M03 A3022 RMK A01 T00351033  RH  061%=      5-min Rain = 0
KBI1 130854Z 15005KT 04/M03 A3022 RMK A01 T00351033  RH  061%=      5-min Rain = 0
KBI1 130855Z 14005KT 04/M03 A3022 RMK A01 T00351033  RH  061%=      5-min Rain = 0
KBI1 130856Z 15003KT 04/M03 A3022 RMK A01 T00351033  RH  061%=      5-min Rain = 0
KBI1 130857Z 15004KT 04/M03 A3022 RMK A01 T00361033  RH  061%=      5-min Rain = 0
KBI1 130858Z 14003KT 04/M03 A3022 RMK A01 T00351033  RH  061%=      5-min Rain = 0
KBI1 130859Z 15005KT 04/M03 A3022 RMK A01 T00361032  RH  061%=      5-min Rain = 0
KBI1 130900Z 14004KT 04/M03 A3022 RMK A01 T00361032  RH  061%=      5-min Rain = 0
KBI1 130901Z 15004KT 04/M03 A3022 RMK A01 T00361032  RH  061%=      5-min Rain = 0
KBI1 130902Z 15005KT 04/M03 A3022 RMK A01 T00361031  RH  061%=      5-min Rain = 0
KBI1 130903Z 16004KT 04/M03 A3022 RMK A01 T00371031  RH  061%=      5-min Rain = 0
KBI1 130904Z 15005KT 04/M03 A3022 RMK A01 T00371030  RH  061%=      5-min Rain = 0
KBI1 130905Z 16005KT 04/M03 A3022 RMK A01 T00381030  RH  061%=      5-min Rain = 0
KBI1 130906Z 15005KT 04/M03 A3022 RMK A01 T00381030  RH  061%=      5-min Rain = 0
KBI1 130907Z 16005KT 04/M03 A3022 RMK A01 T00381029  RH  061%=      5-min Rain = 0
KBI1 130908Z 16005KT 04/M03 A3022 RMK A01 T00391029  RH  061%=      5-min Rain = 0
KBI1 130909Z 16004KT 04/M03 A3022 RMK A01 T00401028  RH  061%=      5-min Rain = 0
KBI1 130910Z 16005KT 04/M03 A3022 RMK A01 T00391028  RH  061%=      5-min Rain = 0
KBI1 130911Z 16005KT 04/M03 A3022 RMK A01 T00401028  RH  061%=      5-min Rain = 0
KBI1 130912Z 15006KT 04/M03 A3022 RMK A01 T00401027  RH  061%=      5-min Rain = 0
KBI1 130913Z 15004KT 04/M03 A3022 RMK A01 T00411027  RH  061%=      5-min Rain = 0
KBI1 130914Z 15004KT 04/M03 A3022 RMK A01 T00411026  RH  061%=      5-min Rain = 0
KBI1 130915Z 15005KT 04/M03 A3022 RMK A01 T00411026  RH  061%=      5-min Rain = 0
KBI1 130916Z 15004KT 04/M03 A3022 RMK A01 T00421026  RH  061%=      5-min Rain = 0
KBI1 130917Z 15005KT 04/M03 A3022 RMK A01 T00421026  RH  061%=      5-min Rain = 0
KBI1 130918Z 15004KT 04/M03 A3022 RMK A01 T00431025  RH  061%=      5-min Rain = 0
KBI1 130919Z 14005KT 04/M03 A3022 RMK A01 T00431025  RH  061%=      5-min Rain = 0
KBI1 130920Z 13004KT 04/M02 A3022 RMK A01 T00441024  RH  061%=      5-min Rain = 0
KBI1 130921Z 14004KT 04/M02 A3022 RMK A01 T00441024  RH  061%=      5-min Rain = 0
KBI1 130922Z 13004KT 05/M02 A3022 RMK A01 T00451024  RH  061%=      5-min Rain = 0
KBI1 130923Z 14005KT 05/M02 A3022 RMK A01 T00451023  RH  061%=      5-min Rain = 0
KBI1 130924Z 14004KT 05/M02 A3022 RMK A01 T00451023  RH  061%=      5-min Rain = 0
KBI1 130925Z 14004KT 05/M02 A3022 RMK A01 T00461023  RH  061%=      5-min Rain = 0
KBI1 130926Z 14005KT 05/M02 A3022 RMK A01 T00461023  RH  061%=      5-min Rain = 0
KBI1 130927Z 15005KT 05/M02 A3022 RMK A01 T00461022  RH  061%=      5-min Rain = 0
KBI1 130928Z 14005KT 05/M02 A3022 RMK A01 T00471022  RH  061%=      5-min Rain = 0
KBI1 130929Z 15005KT 05/M02 A3022 RMK A01 T00471022  RH  061%=      5-min Rain = 0
KBI1 130930Z 15006KT 05/M02 A3022 RMK A01 T00471022  RH  061%=      5-min Rain = 0
KBI1 130931Z 14007KT 05/M02 A3022 RMK A01 T00471022  RH  061%=      5-min Rain = 0
KBI1 130932Z 15005KT 05/M02 A3022 RMK A01 T00471022  RH  061%=      5-min Rain = 0
KBI1 130933Z 15005KT 05/M02 A3022 RMK A01 T00481021  RH  061%=      5-min Rain = 0
KBI1 130934Z 15004KT 05/M02 A3022 RMK A01 T00471021  RH  061%=      5-min Rain = 0
KBI1 130935Z 15005KT 05/M02 A3022 RMK A01 T00481021  RH  061%=      5-min Rain = 0
KBI1 130936Z 16005KT 05/M02 A3022 RMK A01 T00481020  RH  061%=      5-min Rain = 0
KBI1 130937Z 16005KT 05/M02 A3022 RMK A01 T00481020  RH  061%=      5-min Rain = 0
KBI1 130938Z 16006KT 05/M02 A3022 RMK A01 T00491019  RH  061%=      5-min Rain = 0
KBI1 130939Z 16006KT 05/M02 A3022 RMK A01 T00491019  RH  061%=      5-min Rain = 0
KBI1 130940Z 16005KT 05/M02 A3022 RMK A01 T00491019  RH  061%=      5-min Rain = 0
KBI1 130941Z 16006KT 05/M02 A3022 RMK A01 T00491018  RH  062%=      5-min Rain = 0
KBI1 130942Z 15005KT 05/M02 A3022 RMK A01 T00501018  RH  062%=      5-min Rain = 0
KBI1 130943Z 16005KT 05/M02 A3022 RMK A01 T00501017  RH  062%=      5-min Rain = 0
KBI1 130944Z 16005KT 05/M02 A3022 RMK A01 T00501017  RH  062%=      5-min Rain = 0
KBI1 130945Z 16006KT 05/M02 A3022 RMK A01 T00501017  RH  062%=      5-min Rain = 0
KBI1 130946Z 16007KT 05/M02 A3022 RMK A01 T00511016  RH  062%=      5-min Rain = 0
KBI1 130947Z 16005KT 05/M02 A3022 RMK A01 T00511016  RH  062%=      5-min Rain = 0
KBI1 130948Z 16006KT 05/M02 A3022 RMK A01 T00511016  RH  062%=      5-min Rain = 0
KBI1 130949Z 16007KT 05/M02 A3022 RMK A01 T00511016  RH  062%=      5-min Rain = 0
KBI1 130950Z 16005KT 05/M02 A3022 RMK A01 T00511016  RH  062%=      5-min Rain = 0
KBI1 130951Z 16005KT 05/M02 A3022 RMK A01 T00511016  RH  062%=      5-min Rain = 0
KBI1 130952Z 16006KT 05/M02 A3023 RMK A01 T00521016  RH  062%=      5-min Rain = 0
KBI1 130953Z 16005KT 05/M02 A3023 RMK A01 T00521016  RH  062%=      5-min Rain = 0
KBI1 130954Z 17004KT 05/M02 A3023 RMK A01 T00521015  RH  062%=      5-min Rain = 0
KBI1 130955Z 17004KT 05/M02 A3023 RMK A01 T00521016  RH  062%=      5-min Rain = 0
KBI1 130956Z 17005KT 05/M02 A3023 RMK A01 T00521016  RH  062%=      5-min Rain = 0
KBI1 130957Z 17005KT 05/M02 A3023 RMK A01 T00521015  RH  062%=      5-min Rain = 0
KBI1 130958Z 17004KT 05/M02 A3023 RMK A01 T00521016  RH  062%=      5-min Rain = 0
KBI1 130959Z 17004KT 05/M02 A3023 RMK A01 T00521015  RH  062%=      5-min Rain = 0
KBI1 131000Z 18005KT 05/M02 A3023 RMK A01 T00521015  RH  062%=      5-min Rain = 0
KBI1 131001Z 18003KT 05/M02 A3023 RMK A01 T00511015  RH  062%=      5-min Rain = 0
KBI1 131002Z 18004KT 05/M02 A3023 RMK A01 T00521015  RH  062%=      5-min Rain = 0
KBI1 131003Z 18005KT 05/M02 A3023 RMK A01 T00521015  RH  062%=      5-min Rain = 0
KBI1 131004Z 17004KT 05/M02 A3023 RMK A01 T00521015  RH  062%=      5-min Rain = 0
KBI1 131005Z 17004KT 05/M02 A3023 RMK A01 T00521015  RH  062%=      5-min Rain = 0
KBI1 131006Z 17004KT 05/M02 A3022 RMK A01 T00521015  RH  062%=      5-min Rain = 0
KBI1 131007Z 17004KT 05/M02 A3022 RMK A01 T00521015  RH  062%=      5-min Rain = 0
KBI1 131008Z 17005KT 05/M02 A3022 RMK A01 T00521015  RH  062%=      5-min Rain = 0
KBI1 131009Z 18005KT 05/M01 A3023 RMK A01 T00521013  RH  063%=      5-min Rain = 0
KBI1 131010Z 17006KT 05/M01 A3023 RMK A01 T00531013  RH  063%=      5-min Rain = 0
KBI1 131011Z 18007KT 05/M01 A3023 RMK A01 T00531011  RH  063%=      5-min Rain = 0
KBI1 131012Z 17006KT 05/M01 A3023 RMK A01 T00541010  RH  063%=      5-min Rain = 0
KBI1 131013Z 17006KT 05/M01 A3023 RMK A01 T00541010  RH  063%=      5-min Rain = 0
KBI1 131014Z 17006KT 05/M01 A3022 RMK A01 T00541010  RH  063%=      5-min Rain = 0
KBI1 131015Z 16006KT 05/M01 A3022 RMK A01 T00541010  RH  063%=      5-min Rain = 0
KBI1 131016Z 17006KT 05/M01 A3022 RMK A01 T00541010  RH  063%=      5-min Rain = 0
KBI1 131017Z 17006KT 05/M01 A3023 RMK A01 T00541010  RH  063%=      5-min Rain = 0
KBI1 131018Z 18007KT 05/M01 A3023 RMK A01 T00541010  RH  064%=      5-min Rain = 0
KBI1 131019Z 18006KT 05/M01 A3023 RMK A01 T00541009  RH  063%=      5-min Rain = 0
KBI1 131020Z 18006KT 05/M01 A3023 RMK A01 T00541010  RH  063%=      5-min Rain = 0
KBI1 131021Z 18007KT 05/M01 A3023 RMK A01 T00541009  RH  064%=      5-min Rain = 0
KBI1 131022Z 18007KT 06/M01 A3023 RMK A01 T00551008  RH  064%=      5-min Rain = 0
KBI1 131023Z 17010KT 05/M01 A3023 RMK A01 T00541006  RH  065%=      5-min Rain = 0
KBI1 131024Z 16011KT 06/00 A3023 RMK A01 T00560003  RH  069%=      5-min Rain = 0
KBI1 131025Z 17010KT 06/01 A3023 RMK A01 T00580006  RH  069%=      5-min Rain = 0
KBI1 131026Z 16011G17KT 06/01 A3023 RMK A01 T00600009  RH  070%=      5-min Rain = 0
KBI1 131027Z 17010KT 06/01 A3023 RMK A01 T00610011  RH  070%=      5-min Rain = 0
KBI1 131028Z 16010KT 06/01 A3023 RMK A01 T00620013  RH  070%=      5-min Rain = 0
KBI1 131029Z 16009KT 06/01 A3023 RMK A01 T00630013  RH  070%=      5-min Rain = 0
KBI1 131030Z 15010G15KT 06/01 A3023 RMK A01 T00630013  RH  070%=      5-min Rain = 0
KBI1 131031Z 16013KT 06/01 A3023 RMK A01 T00630014  RH  071%=      5-min Rain = 0
KBI1 131032Z 16012G17KT 06/02 A3023 RMK A01 T00630016  RH  071%=      5-min Rain = 0
KBI1 131033Z 16014G20KT 06/02 A3024 RMK A01 T00630016  RH  071%=      5-min Rain = 0
KBI1 131034Z 16009KT 06/02 A3024 RMK A01 T00630015  RH  071%=      5-min Rain = 0
KBI1 131035Z 16010KT 06/02 A3024 RMK A01 T00630016  RH  071%=      5-min Rain = 0
KBI1 131036Z 17015KT 06/02 A3024 RMK A01 T00630016  RH  072%=      5-min Rain = 0
KBI1 131037Z 16011KT 06/02 A3024 RMK A01 T00630017  RH  072%=      5-min Rain = 0
KBI1 131038Z 16015KT 06/02 A3024 RMK A01 T00630017  RH  072%=      5-min Rain = 0
KBI1 131039Z 16016KT 06/02 A3024 RMK A01 T00630017  RH  072%=      5-min Rain = 0
KBI1 131040Z 16014KT 06/02 A3024 RMK A01 T00630017  RH  072%=      5-min Rain = 0
KBI1 131041Z 16013KT 06/02 A3024 RMK A01 T00640017  RH  072%=      5-min Rain = 0
KBI1 131042Z 16013KT 06/02 A3024 RMK A01 T00630017  RH  072%=      5-min Rain = 0
KBI1 131043Z 16012KT 06/02 A3024 RMK A01 T00640017  RH  072%=      5-min Rain = 0
KBI1 131044Z 16013KT 06/02 A3024 RMK A01 T00640018  RH  072%=      5-min Rain = 0
KBI1 131045Z 16012KT 06/02 A3024 RMK A01 T00630017  RH  072%=      5-min Rain = 0
KBI1 131046Z 17012KT 06/02 A3024 RMK A01 T00640017  RH  072%=      5-min Rain = 0
KBI1 131047Z 16012KT 06/02 A3024 RMK A01 T00630017  RH  072%=      5-min Rain = 0
KBI1 131048Z 17013KT 06/02 A3024 RMK A01 T00640017  RH  072%=      5-min Rain = 0
KBI1 131049Z 16011KT 06/02 A3024 RMK A01 T00630017  RH  072%=      5-min Rain = 0
KBI1 131050Z 17013KT 06/02 A3024 RMK A01 T00630018  RH  073%=      5-min Rain = 0
KBI1 131051Z 17014KT 06/02 A3024 RMK A01 T00630018  RH  073%=      5-min Rain = 0
KBI1 131052Z 17014KT 06/02 A3024 RMK A01 T00630019  RH  073%=      5-min Rain = 0
KBI1 131053Z 17013KT 06/02 A3024 RMK A01 T00630019  RH  073%=      5-min Rain = 0
KBI1 131054Z 16017KT 06/02 A3024 RMK A01 T00630019  RH  074%=      5-min Rain = 0
KBI1 131055Z 17017G22KT 06/02 A3024 RMK A01 T00630020  RH  074%=      5-min Rain = 0
KBI1 131056Z 17015KT 06/02 A3024 RMK A01 T00630022  RH  075%=      5-min Rain = 0
KBI1 131057Z 16014KT 06/02 A3024 RMK A01 T00620022  RH  075%=      5-min Rain = 0
KBI1 131058Z 16014G19KT 06/02 A3024 RMK A01 T00620021  RH  075%=      5-min Rain = 0
KBI1 131059Z 16014KT 06/02 A3024 RMK A01 T00620020  RH  075%=      5-min Rain = 0
KBI1 131100Z 16017KT 06/02 A3024 RMK A01 T00620020  RH  075%=      5-min Rain = 0
KBI1 131101Z 17015KT 06/02 A3025 RMK A01 T00620020  RH  075%=      5-min Rain = 0
KBI1 131102Z 16013G18KT 06/02 A3025 RMK A01 T00620020  RH  075%=      5-min Rain = 0
KBI1 131103Z 17014KT 06/02 A3024 RMK A01 T00620019  RH  074%=      5-min Rain = 0
KBI1 131104Z 16012KT 06/02 A3024 RMK A01 T00620019  RH  074%=      5-min Rain = 0
KBI1 131105Z 17016G22KT 06/02 A3025 RMK A01 T00620019  RH  074%=      5-min Rain = 0
KBI1 131106Z 16015G20KT 06/02 A3025 RMK A01 T00620019  RH  074%=      5-min Rain = 0
KBI1 131107Z 17012KT 06/02 A3025 RMK A01 T00620020  RH  074%=      5-min Rain = 0
KBI1 131108Z 16012G18KT 06/02 A3025 RMK A01 T00620019  RH  074%=      5-min Rain = 0
KBI1 131109Z 17012KT 06/02 A3025 RMK A01 T00620018  RH  074%=      5-min Rain = 0
KBI1 131110Z 17010KT 06/02 A3026 RMK A01 T00620018  RH  074%=      5-min Rain = 0
KBI1 131111Z 16010KT 06/02 A3025 RMK A01 T00620018  RH  073%=      5-min Rain = 0
KBI1 131112Z 16008KT 06/02 A3026 RMK A01 T00620018  RH  073%=      5-min Rain = 0
KBI1 131113Z 17008KT 06/02 A3026 RMK A01 T00620018  RH  073%=      5-min Rain = 0
KBI1 131114Z 17008KT 06/02 A3026 RMK A01 T00620017  RH  073%=      5-min Rain = 0
KBI1 131115Z 16009G14KT 06/02 A3026 RMK A01 T00620017  RH  073%=      5-min Rain = 0
KBI1 131116Z 16012KT 06/02 A3026 RMK A01 T00620017  RH  073%=      5-min Rain = 0
KBI1 131117Z 16013KT 06/02 A3026 RMK A01 T00620017  RH  073%=      5-min Rain = 0
KBI1 131118Z 16010KT 06/02 A3026 RMK A01 T00620016  RH  073%=      5-min Rain = 0
KBI1 131119Z 16010KT 06/02 A3026 RMK A01 T00620016  RH  073%=      5-min Rain = 0
KBI1 131120Z 16010KT 06/02 A3026 RMK A01 T00620016  RH  073%=      5-min Rain = 0
KBI1 131121Z 15010KT 06/02 A3026 RMK A01 T00620016  RH  073%=      5-min Rain = 0
KBI1 131122Z 16010KT 06/02 A3026 RMK A01 T00620017  RH  073%=      5-min Rain = 0
KBI1 131123Z 16008G14KT 06/02 A3026 RMK A01 T00620017  RH  073%=      5-min Rain = 0
KBI1 131124Z 16009KT 06/02 A3025 RMK A01 T00620018  RH  073%=      5-min Rain = 0
KBI1 131125Z 16010KT 06/02 A3026 RMK A01 T00620018  RH  074%=      5-min Rain = 0
KBI1 131126Z 17013KT 06/02 A3026 RMK A01 T00620019  RH  074%=      5-min Rain = 0
KBI1 131127Z 17016KT 06/02 A3025 RMK A01 T00620020  RH  075%=      5-min Rain = 0
KBI1 131128Z 16014KT 06/02 A3025 RMK A01 T00620021  RH  075%=      5-min Rain = 0
KBI1 131129Z 16013KT 06/02 A3025 RMK A01 T00610021  RH  075%=      5-min Rain = 0
KBI1 131130Z 16012KT 06/02 A3026 RMK A01 T00610022  RH  076%=      5-min Rain = 0
KBI1 131131Z 17010KT 06/02 A3026 RMK A01 T00610022  RH  076%=      5-min Rain = 0
KBI1 131132Z 17013KT 06/02 A3025 RMK A01 T00610022  RH  076%=      5-min Rain = 0
KBI1 131133Z 17012KT 06/02 A3025 RMK A01 T00610022  RH  076%=      5-min Rain = 0
KBI1 131134Z 16008KT 06/02 A3025 RMK A01 T00610022  RH  076%=      5-min Rain = 0
KBI1 131135Z 16010KT 06/02 A3026 RMK A01 T00610022  RH  076%=      5-min Rain = 0
KBI1 131136Z 16010KT 06/02 A3026 RMK A01 T00620022  RH  076%=      5-min Rain = 0
KBI1 131137Z 16009KT 06/02 A3026 RMK A01 T00610022  RH  076%=      5-min Rain = 0
KBI1 131138Z 15009KT 06/02 A3026 RMK A01 T00610021  RH  076%=      5-min Rain = 0
KBI1 131139Z 16007KT 06/02 A3026 RMK A01 T00610021  RH  075%=      5-min Rain = 0
KBI1 131140Z 16009KT 06/02 A3025 RMK A01 T00610021  RH  075%=      5-min Rain = 0
KBI1 131141Z 16008KT 06/02 A3025 RMK A01 T00610021  RH  075%=      5-min Rain = 0
KBI1 131142Z 15006KT 06/02 A3025 RMK A01 T00610020  RH  075%=      5-min Rain = 0
KBI1 131143Z 14007KT 06/02 A3025 RMK A01 T00610020  RH  075%=      5-min Rain = 0
KBI1 131144Z 16005KT 06/02 A3026 RMK A01 T00610020  RH  075%=      5-min Rain = 0
KBI1 131145Z 15007KT 06/02 A3026 RMK A01 T00610020  RH  075%=      5-min Rain = 0
KBI1 131146Z 15006KT 06/02 A3026 RMK A01 T00610020  RH  075%=      5-min Rain = 0
KBI1 131147Z 15008KT 06/02 A3025 RMK A01 T00610020  RH  075%=      5-min Rain = 0
KBI1 131148Z 15008KT 06/02 A3025 RMK A01 T00610021  RH  075%=      5-min Rain = 0
KBI1 131149Z 15006KT 06/02 A3025 RMK A01 T00600021  RH  076%=      5-min Rain = 0
KBI1 131150Z 16007KT 06/02 A3025 RMK A01 T00600021  RH  076%=      5-min Rain = 0
KBI1 131151Z 16007KT 06/02 A3025 RMK A01 T00600021  RH  076%=      5-min Rain = 0
KBI1 131152Z 16009KT 06/02 A3025 RMK A01 T00600021  RH  076%=      5-min Rain = 0
KBI1 131153Z 15009KT 06/02 A3025 RMK A01 T00600021  RH  076%=      5-min Rain = 0
KBI1 131154Z 15008KT 06/02 A3025 RMK A01 T00600021  RH  076%=      5-min Rain = 0
KBI1 131155Z 16008KT 06/02 A3025 RMK A01 T00600022  RH  076%=      5-min Rain = 0
KBI1 131156Z 16009KT 06/02 A3025 RMK A01 T00600021  RH  076%=      5-min Rain = 0
KBI1 131157Z 15009KT 06/02 A3025 RMK A01 T00600022  RH  076%=      5-min Rain = 0
KBI1 131158Z 15009KT 06/02 A3025 RMK A01 T00600022  RH  076%=      5-min Rain = 0
KBI1 131159Z 15010KT 06/02 A3025 RMK A01 T00600022  RH  076%=      5-min Rain = 0
KBI1 131200Z 15010KT 06/02 A3025 RMK A01 T00600022  RH  077%=      5-min Rain = 0
KBI1 131201Z 15008KT 06/02 A3025 RMK A01 T00600022  RH  077%=      5-min Rain = 0
KBI1 131202Z 16010KT 06/02 A3025 RMK A01 T00600022  RH  077%=      5-min Rain = 0
KBI1 131203Z 16010KT 06/02 A3025 RMK A01 T00600022  RH  077%=      5-min Rain = 0
KBI1 131204Z 16012KT 06/02 A3025 RMK A01 T00600022  RH  077%=      5-min Rain = 0
KBI1 131205Z 15012KT 06/02 A3025 RMK A01 T00600022  RH  077%=      5-min Rain = 0
KBI1 131206Z 16012KT 06/02 A3025 RMK A01 T00600022  RH  077%=      5-min Rain = 0
KBI1 131207Z 16009KT 06/02 A3025 RMK A01 T00600022  RH  077%=      5-min Rain = 0
KBI1 131208Z 16009KT 06/02 A3025 RMK A01 T00600022  RH  077%=      5-min Rain = 0
KBI1 131209Z 16009G15KT 06/02 A3025 RMK A01 T00600022  RH  077%=      5-min Rain = 0
KBI1 131210Z 15009KT 06/02 A3025 RMK A01 T00600022  RH  077%=      5-min Rain = 0
KBI1 131211Z 15010KT 06/02 A3025 RMK A01 T00600022  RH  077%=      5-min Rain = 0
KBI1 131212Z 16012KT 06/02 A3025 RMK A01 T00600023  RH  077%=      5-min Rain = 0
KBI1 131213Z 16012KT 06/02 A3025 RMK A01 T00600023  RH  077%=      5-min Rain = 0
KBI1 131214Z 16011KT 06/02 A3026 RMK A01 T00600023  RH  077%=      5-min Rain = 0
KBI1 131215Z 16010KT 06/02 A3026 RMK A01 T00600023  RH  077%=      5-min Rain = 0
KBI1 131216Z 16009KT 06/02 A3026 RMK A01 T00600023  RH  077%=      5-min Rain = 0
KBI1 131217Z 16010KT 06/02 A3026 RMK A01 T00600023  RH  077%=      5-min Rain = 0
KBI1 131218Z 16010KT 06/02 A3026 RMK A01 T00600023  RH  077%=      5-min Rain = 0
KBI1 131219Z 16011KT 06/02 A3026 RMK A01 T00600023  RH  077%=      5-min Rain = 0
KBI1 131220Z 15008KT 06/02 A3026 RMK A01 T00600023  RH  077%=      5-min Rain = 0
KBI1 131221Z 16008KT 06/02 A3026 RMK A01 T00610024  RH  077%=      5-min Rain = 0
KBI1 131222Z 15010KT 06/02 A3026 RMK A01 T00600024  RH  077%=      5-min Rain = 0
KBI1 131223Z 16013KT 06/02 A3026 RMK A01 T00600024  RH  077%=      5-min Rain = 0
KBI1 131224Z 16011G16KT 06/02 A3026 RMK A01 T00610024  RH  077%=      5-min Rain = 0
KBI1 131225Z 16010KT 06/02 A3026 RMK A01 T00600024  RH  077%=      5-min Rain = 0
KBI1 131226Z 15013KT 06/02 A3026 RMK A01 T00600024  RH  077%=      5-min Rain = 0
KBI1 131227Z 16012KT 06/02 A3026 RMK A01 T00600024  RH  077%=      5-min Rain = 0
KBI1 131228Z 15014KT 06/02 A3026 RMK A01 T00600024  RH  077%=      5-min Rain = 0
KBI1 131229Z 15013KT 06/02 A3026 RMK A01 T00600024  RH  077%=      5-min Rain = 0
KBI1 131230Z 16014KT 06/02 A3026 RMK A01 T00600024  RH  077%=      5-min Rain = 0
KBI1 131231Z 16012KT 06/02 A3026 RMK A01 T00600024  RH  077%=      5-min Rain = 0
KBI1 131232Z 16010G15KT 06/02 A3026 RMK A01 T00600024  RH  077%=      5-min Rain = 0
KBI1 131233Z 16011KT 06/02 A3026 RMK A01 T00600024  RH  077%=      5-min Rain = 0
KBI1 131234Z 15009KT 06/02 A3026 RMK A01 T00600024  RH  077%=      5-min Rain = 0
KBI1 131235Z 15006KT 06/02 A3026 RMK A01 T00610024  RH  077%=      5-min Rain = 0
KBI1 131236Z 17007KT 06/02 A3026 RMK A01 T00600024  RH  077%=      5-min Rain = 0
KBI1 131237Z 16009KT 06/02 A3026 RMK A01 T00600024  RH  077%=      5-min Rain = 0
KBI1 131238Z 16009KT 06/02 A3026 RMK A01 T00600024  RH  077%=      5-min Rain = 0
KBI1 131239Z 16010KT 06/02 A3026 RMK A01 T00600024  RH  077%=      5-min Rain = 0
KBI1 131240Z 16009G14KT 06/02 A3026 RMK A01 T00600024  RH  078%=      5-min Rain = 0
KBI1 131241Z 16010KT 06/02 A3026 RMK A01 T00600024  RH  077%=      5-min Rain = 0
KBI1 131242Z 16009KT 06/02 A3026 RMK A01 T00600024  RH  077%=      5-min Rain = 0
KBI1 131243Z 16009KT 06/02 A3026 RMK A01 T00600024  RH  077%=      5-min Rain = 0
KBI1 131244Z 15009KT 06/02 A3026 RMK A01 T00600024  RH  077%=      5-min Rain = 0
KBI1 131245Z 15007KT 06/02 A3026 RMK A01 T00600024  RH  078%=      5-min Rain = 0
KBI1 131246Z 15008KT 06/02 A3026 RMK A01 T00600024  RH  078%=      5-min Rain = 0
KBI1 131247Z 15008KT 06/02 A3026 RMK A01 T00600024  RH  078%=      5-min Rain = 0
KBI1 131248Z 15008KT 06/02 A3026 RMK A01 T00600024  RH  078%=      5-min Rain = 0
KBI1 131249Z 15008KT 06/02 A3026 RMK A01 T00600024  RH  078%=      5-min Rain = 0
KBI1 131250Z 16010KT 06/03 A3026 RMK A01 T00600025  RH  078%=      5-min Rain = 0
KBI1 131251Z 15009KT 06/03 A3026 RMK A01 T00600025  RH  078%=      5-min Rain = 0
KBI1 131252Z 15010KT 06/03 A3026 RMK A01 T00610025  RH  078%=      5-min Rain = 0
KBI1 131253Z 16011G16KT 06/03 A3026 RMK A01 T00610025  RH  078%=      5-min Rain = 0
KBI1 131254Z 16011G16KT 06/02 A3026 RMK A01 T00600024  RH  078%=      5-min Rain = 0
KBI1 131255Z 16013KT 06/02 A3026 RMK A01 T00600024  RH  077%=      5-min Rain = 0
KBI1 131256Z 16010KT 06/02 A3026 RMK A01 T00600024  RH  077%=      5-min Rain = 0
KBI1 131257Z 16009KT 06/02 A3026 RMK A01 T00600023  RH  077%=      5-min Rain = 0
KBI1 131258Z 16008KT 06/02 A3026 RMK A01 T00610024  RH  077%=      5-min Rain = 0
KBI1 131259Z 17009KT 06/02 A3026 RMK A01 T00610024  RH  077%=      5-min Rain = 0
KBI1 131300Z 16011KT 06/02 A3026 RMK A01 T00610024  RH  077%=      5-min Rain = 0
KBI1 131301Z 15009KT 06/02 A3026 RMK A01 T00610024  RH  077%=      5-min Rain = 0
KBI1 131302Z 16010KT 06/02 A3026 RMK A01 T00610024  RH  077%=      5-min Rain = 0
KBI1 131303Z 16009KT 06/02 A3026 RMK A01 T00610024  RH  077%=      5-min Rain = 0
KBI1 131304Z 15009KT 06/02 A3027 RMK A01 T00610024  RH  077%=      5-min Rain = 0
KBI1 131305Z 16011KT 06/02 A3027 RMK A01 T00610024  RH  077%=      5-min Rain = 0
KBI1 131306Z 17009KT 06/02 A3027 RMK A01 T00610024  RH  077%=      5-min Rain = 0
KBI1 131307Z 16011KT 06/02 A3027 RMK A01 T00610023  RH  077%=      5-min Rain = 0
KBI1 131308Z 16010KT 06/02 A3027 RMK A01 T00610024  RH  077%=      5-min Rain = 0
KBI1 131309Z 16011KT 06/02 A3027 RMK A01 T00610024  RH  077%=      5-min Rain = 0
KBI1 131310Z 16007KT 06/02 A3027 RMK A01 T00610023  RH  077%=      5-min Rain = 0
KBI1 131311Z 16007KT 06/02 A3027 RMK A01 T00610023  RH  077%=      5-min Rain = 0
KBI1 131312Z 16011KT 06/02 A3027 RMK A01 T00610023  RH  077%=      5-min Rain = 0
KBI1 131313Z 17010KT 06/02 A3027 RMK A01 T00610023  RH  077%=      5-min Rain = 0
KBI1 131314Z 16008KT 06/02 A3027 RMK A01 T00610023  RH  077%=      5-min Rain = 0
KBI1 131315Z 16011KT 06/02 A3027 RMK A01 T00610023  RH  077%=      5-min Rain = 0
KBI1 131316Z 16010KT 06/02 A3027 RMK A01 T00610023  RH  076%=      5-min Rain = 0
KBI1 131317Z 16011KT 06/02 A3027 RMK A01 T00610022  RH  076%=      5-min Rain = 0
KBI1 131318Z 16010G15KT 06/02 A3027 RMK A01 T00610022  RH  076%=      5-min Rain = 0
KBI1 131319Z 16014KT 06/02 A3027 RMK A01 T00610022  RH  076%=      5-min Rain = 0
KBI1 131320Z 16011KT 06/02 A3027 RMK A01 T00610021  RH  076%=      5-min Rain = 0
KBI1 131321Z 16010KT 06/02 A3027 RMK A01 T00610021  RH  076%=      5-min Rain = 0
KBI1 131322Z 16011KT 06/02 A3027 RMK A01 T00610021  RH  076%=      5-min Rain = 0
KBI1 131323Z 16009KT 06/02 A3027 RMK A01 T00610021  RH  076%=      5-min Rain = 0
KBI1 131324Z 16009KT 06/02 A3027 RMK A01 T00610021  RH  075%=      5-min Rain = 0
KBI1 131325Z 15010KT 06/02 A3027 RMK A01 T00610020  RH  075%=      5-min Rain = 0
KBI1 131326Z 16010KT 06/02 A3027 RMK A01 T00610020  RH  075%=      5-min Rain = 0
KBI1 131327Z 16010KT 06/02 A3027 RMK A01 T00610020  RH  075%=      5-min Rain = 0
KBI1 131328Z 16010KT 06/02 A3027 RMK A01 T00610020  RH  075%=      5-min Rain = 0
KBI1 131329Z 15011KT 06/02 A3027 RMK A01 T00610020  RH  075%=      5-min Rain = 0
KBI1 131330Z 16010KT 06/02 A3027 RMK A01 T00610019  RH  075%=      5-min Rain = 0
KBI1 131331Z 16010KT 06/02 A3027 RMK A01 T00610020  RH  075%=      5-min Rain = 0
KBI1 131332Z 17012KT 06/02 A3027 RMK A01 T00610019  RH  075%=      5-min Rain = 0
KBI1 131333Z 17012KT 06/02 A3027 RMK A01 T00610019  RH  074%=      5-min Rain = 0
KBI1 131334Z 16011KT 06/02 A3027 RMK A01 T00610019  RH  074%=      5-min Rain = 0
KBI1 131335Z 17011KT 06/02 A3027 RMK A01 T00610019  RH  074%=      5-min Rain = 0
KBI1 131336Z 17010KT 06/02 A3027 RMK A01 T00610019  RH  074%=      5-min Rain = 0
KBI1 131337Z 17011KT 06/02 A3028 RMK A01 T00610019  RH  074%=      5-min Rain = 0
KBI1 131338Z 17010KT 06/02 A3028 RMK A01 T00620019  RH  074%=      5-min Rain = 0
KBI1 131339Z 17010KT 06/02 A3028 RMK A01 T00620019  RH  074%=      5-min Rain = 0
KBI1 131340Z 17011KT 06/02 A3028 RMK A01 T00620018  RH  074%=      5-min Rain = 0
KBI1 131341Z 17010KT 06/02 A3028 RMK A01 T00620018  RH  074%=      5-min Rain = 0
KBI1 131342Z 17010KT 06/02 A3028 RMK A01 T00620018  RH  074%=      5-min Rain = 0
KBI1 131343Z 17011KT 06/02 A3028 RMK A01 T00610018  RH  073%=      5-min Rain = 0
KBI1 131344Z 17012KT 06/02 A3028 RMK A01 T00620018  RH  073%=      5-min Rain = 0
KBI1 131345Z 18012KT 06/02 A3028 RMK A01 T00620017  RH  073%=      5-min Rain = 0
KBI1 131346Z 17009KT 06/02 A3028 RMK A01 T00620017  RH  073%=      5-min Rain = 0
KBI1 131347Z 17010KT 06/02 A3028 RMK A01 T00620017  RH  073%=      5-min Rain = 0
KBI1 131348Z 17010KT 06/02 A3028 RMK A01 T00620017  RH  073%=      5-min Rain = 0
KBI1 131349Z 17011KT 06/02 A3028 RMK A01 T00620017  RH  073%=      5-min Rain = 0
KBI1 131350Z 18012KT 06/02 A3028 RMK A01 T00620017  RH  073%=      5-min Rain = 0
KBI1 131351Z 17012KT 06/02 A3028 RMK A01 T00620016  RH  073%=      5-min Rain = 0
KBI1 131352Z 17012KT 06/02 A3028 RMK A01 T00620016  RH  072%=      5-min Rain = 0
KBI1 131353Z 17011KT 06/02 A3029 RMK A01 T00620016  RH  072%=      5-min Rain = 0
KBI1 131354Z 17009KT 06/02 A3029 RMK A01 T00620016  RH  072%=      5-min Rain = 0
KBI1 131355Z 17008KT 06/02 A3029 RMK A01 T00620016  RH  072%=      5-min Rain = 0
KBI1 131356Z 17008KT 06/02 A3029 RMK A01 T00620016  RH  072%=      5-min Rain = 0
KBI1 131357Z 17008KT 06/02 A3029 RMK A01 T00620016  RH  072%=      5-min Rain = 0
KBI1 131358Z 17011KT 06/02 A3029 RMK A01 T00620016  RH  072%=      5-min Rain = 0
KBI1 131359Z 17010KT 06/02 A3029 RMK A01 T00630016  RH  072%=      5-min Rain = 0
KBI1 131400Z 18010KT 06/02 A3029 RMK A01 T00630016  RH  072%=      5-min Rain = 0
KBI1 131401Z 17009KT 06/02 A3029 RMK A01 T00630016  RH  072%=      5-min Rain = 0
KBI1 131402Z 17011KT 06/02 A3029 RMK A01 T00630016  RH  072%=      5-min Rain = 0
KBI1 131403Z 17009KT 06/02 A3029 RMK A01 T00630016  RH  072%=      5-min Rain = 0
KBI1 131404Z 17009KT 06/02 A3029 RMK A01 T00630016  RH  072%=      5-min Rain = 0
KBI1 131405Z 17009KT 06/02 A3029 RMK A01 T00630016  RH  072%=      5-min Rain = 0
KBI1 131406Z 17009KT 06/02 A3029 RMK A01 T00630016  RH  072%=      5-min Rain = 0
KBI1 131407Z 17008KT 06/02 A3029 RMK A01 T00630016  RH  072%=      5-min Rain = 0
KBI1 131408Z 17008KT 06/02 A3029 RMK A01 T00630016  RH  072%=      5-min Rain = 0
KBI1 131409Z 17009KT 06/02 A3029 RMK A01 T00630016  RH  072%=      5-min Rain = 0
KBI1 131410Z 17010KT 06/02 A3029 RMK A01 T00640016  RH  072%=      5-min Rain = 0
KBI1 131411Z 17010KT 06/02 A303 RMK A01 T00630016  RH  072%=      5-min Rain = 0
KBI1 131412Z 17009KT 06/02 A303 RMK A01 T00640016  RH  072%=      5-min Rain = 0
KBI1 131413Z 17009KT 06/02 A303 RMK A01 T00640016  RH  071%=      5-min Rain = 0
KBI1 131414Z 17010KT 06/02 A303 RMK A01 T00640016  RH  071%=      5-min Rain = 0
KBI1 131415Z 17009KT 06/02 A303 RMK A01 T00640016  RH  071%=      5-min Rain = 0
KBI1 131416Z 17009KT 06/02 A303 RMK A01 T00640016  RH  071%=      5-min Rain = 0
KBI1 131417Z 17010KT 06/02 A303 RMK A01 T00640016  RH  071%=      5-min Rain = 0
KBI1 131418Z 17009KT 06/02 A303 RMK A01 T00640016  RH  071%=      5-min Rain = 0
KBI1 131419Z 17008KT 06/02 A303 RMK A01 T00640016  RH  071%=      5-min Rain = 0
KBI1 131420Z 17007KT 06/02 A303 RMK A01 T00640016  RH  071%=      5-min Rain = 0
KBI1 131421Z 17007KT 06/02 A303 RMK A01 T00640016  RH  071%=      5-min Rain = 0
KBI1 131422Z 16006KT 06/02 A303 RMK A01 T00640016  RH  071%=      5-min Rain = 0
KBI1 131423Z 16006KT 06/02 A303 RMK A01 T00640016  RH  071%=      5-min Rain = 0
KBI1 131424Z 16006KT 06/02 A303 RMK A01 T00640016  RH  071%=      5-min Rain = 0
KBI1 131425Z 16006KT 06/02 A303 RMK A01 T00640016  RH  071%=      5-min Rain = 0
KBI1 131426Z 16007KT 07/02 A303 RMK A01 T00650016  RH  071%=      5-min Rain = 0
KBI1 131427Z 15007KT 07/02 A303 RMK A01 T00650016  RH  071%=      5-min Rain = 0
KBI1 131428Z 17009KT 07/02 A303 RMK A01 T00650016  RH  071%=      5-min Rain = 0
KBI1 131429Z 17009KT 06/02 A303 RMK A01 T00640016  RH  071%=      5-min Rain = 0
KBI1 131430Z 17009KT 07/02 A303 RMK A01 T00650016  RH  071%=      5-min Rain = 0
KBI1 131431Z 17008KT 06/02 A303 RMK A01 T00640015  RH  071%=      5-min Rain = 0
KBI1 131432Z 16007KT 06/02 A303 RMK A01 T00640015  RH  071%=      5-min Rain = 0
KBI1 131433Z 16007KT 07/02 A3031 RMK A01 T00650016  RH  071%=      5-min Rain = 0
KBI1 131434Z 16008KT 07/02 A3031 RMK A01 T00650015  RH  071%=      5-min Rain = 0
KBI1 131435Z 16008KT 07/02 A3031 RMK A01 T00650016  RH  071%=      5-min Rain = 0
KBI1 131436Z 17007KT 07/02 A3031 RMK A01 T00650015  RH  070%=      5-min Rain = 0
KBI1 131437Z 16006KT 07/02 A3031 RMK A01 T00660016  RH  071%=      5-min Rain = 0
KBI1 131438Z 17005KT 07/02 A3031 RMK A01 T00650016  RH  070%=      5-min Rain = 0
KBI1 131439Z 18005KT 07/02 A3031 RMK A01 T00660016  RH  070%=      5-min Rain = 0
KBI1 131440Z 18007KT 07/02 A3031 RMK A01 T00660016  RH  070%=      5-min Rain = 0
KBI1 131441Z 16005KT 07/02 A3031 RMK A01 T00670016  RH  070%=      5-min Rain = 0
KBI1 131442Z 15007KT 07/02 A3031 RMK A01 T00670016  RH  070%=      5-min Rain = 0
KBI1 131443Z 16008KT 07/02 A3031 RMK A01 T00670015  RH  070%=      5-min Rain = 0
KBI1 131444Z 16007KT 07/02 A3031 RMK A01 T00670015  RH  070%=      5-min Rain = 0
KBI1 131445Z 16008KT 07/02 A3031 RMK A01 T00670016  RH  070%=      5-min Rain = 0
KBI1 131446Z 16008KT 07/02 A3031 RMK A01 T00660015  RH  070%=      5-min Rain = 0
KBI1 131447Z 16005KT 07/02 A3031 RMK A01 T00660015  RH  070%=      5-min Rain = 0
KBI1 131448Z 17007KT 07/02 A3031 RMK A01 T00670015  RH  070%=      5-min Rain = 0
KBI1 131449Z 17010KT 07/02 A3031 RMK A01 T00670015  RH  070%=      5-min Rain = 0
KBI1 131450Z 16007KT 07/02 A3031 RMK A01 T00670015  RH  069%=      5-min Rain = 0
KBI1 131451Z 16008KT 07/02 A3031 RMK A01 T00670015  RH  069%=      5-min Rain = 0
KBI1 131452Z 16009KT 07/02 A3031 RMK A01 T00670015  RH  069%=      5-min Rain = 0
KBI1 131453Z 16009KT 07/02 A3031 RMK A01 T00670015  RH  069%=      5-min Rain = 0
KBI1 131454Z 16008KT 07/01 A3031 RMK A01 T00670014  RH  069%=      5-min Rain = 0
KBI1 131455Z 16008KT 07/01 A3031 RMK A01 T00670014  RH  069%=      5-min Rain = 0
KBI1 131456Z 16009KT 07/02 A3031 RMK A01 T00670015  RH  069%=      5-min Rain = 0
KBI1 131457Z 16009KT 07/01 A3031 RMK A01 T00670014  RH  069%=      5-min Rain = 0
KBI1 131458Z 17010KT 07/01 A3031 RMK A01 T00670014  RH  069%=      5-min Rain = 0
KBI1 131459Z 16010KT 07/01 A3031 RMK A01 T00670014  RH  069%=      5-min Rain = 0
KBI1 131500Z 16008KT 07/01 A3031 RMK A01 T00670014  RH  069%=      5-min Rain = 0
KBI1 131501Z 16008KT 07/02 A3031 RMK A01 T00670015  RH  069%=      5-min Rain = 0
KBI1 131502Z 16008KT 07/02 A3032 RMK A01 T00680015  RH  069%=      5-min Rain = 0
KBI1 131503Z 17008KT 07/01 A3032 RMK A01 T00680014  RH  069%=      5-min Rain = 0
KBI1 131504Z 16010KT 07/01 A3032 RMK A01 T00680014  RH  069%=      5-min Rain = 0
KBI1 131505Z 16008KT 07/01 A3032 RMK A01 T00680014  RH  069%=      5-min Rain = 0
KBI1 131506Z 16009KT 07/02 A3032 RMK A01 T00680015  RH  069%=      5-min Rain = 0
KBI1 131507Z 16009KT 07/02 A3032 RMK A01 T00680015  RH  069%=      5-min Rain = 0
KBI1 131508Z 16006KT 07/02 A3032 RMK A01 T00690015  RH  069%=      5-min Rain = 0
KBI1 131509Z 17007KT 07/02 A3032 RMK A01 T00690015  RH  068%=      5-min Rain = 0
KBI1 131510Z 16008KT 07/02 A3032 RMK A01 T00700016  RH  068%=      5-min Rain = 0
KBI1 131511Z 16010KT 07/02 A3032 RMK A01 T00700016  RH  068%=      5-min Rain = 0
KBI1 131512Z 16011KT 07/02 A3032 RMK A01 T00700015  RH  068%=      5-min Rain = 0
KBI1 131513Z 16010KT 07/02 A3032 RMK A01 T00700015  RH  068%=      5-min Rain = 0
KBI1 131514Z 16008KT 07/02 A3032 RMK A01 T00700015  RH  068%=      5-min Rain = 0
KBI1 131515Z 17009KT 07/02 A3032 RMK A01 T00700015  RH  068%=      5-min Rain = 0
KBI1 131516Z 15008KT 07/02 A3032 RMK A01 T00700015  RH  068%=      5-min Rain = 0
KBI1 131517Z 16008KT 07/02 A3032 RMK A01 T00710016  RH  068%=      5-min Rain = 0
KBI1 131518Z 16010KT 07/02 A3032 RMK A01 T00700015  RH  068%=      5-min Rain = 0
KBI1 131519Z 16010KT 07/02 A3032 RMK A01 T00710015  RH  068%=      5-min Rain = 0
KBI1 131520Z 16007KT 07/02 A3032 RMK A01 T00710016  RH  068%=      5-min Rain = 0
KBI1 131521Z 15007KT 07/02 A3032 RMK A01 T00700015  RH  068%=      5-min Rain = 0
KBI1 131522Z 16010KT 07/02 A3032 RMK A01 T00710015  RH  067%=      5-min Rain = 0
KBI1 131523Z 16006KT 07/02 A3032 RMK A01 T00710015  RH  067%=      5-min Rain = 0
KBI1 131524Z 15007KT 07/02 A3032 RMK A01 T00720015  RH  067%=      5-min Rain = 0
KBI1 131525Z 16011KT 07/02 A3032 RMK A01 T00720015  RH  067%=      5-min Rain = 0
KBI1 131526Z 16009KT 07/02 A3032 RMK A01 T00720015  RH  067%=      5-min Rain = 0
KBI1 131527Z 17009KT 07/02 A3032 RMK A01 T00720015  RH  067%=      5-min Rain = 0
KBI1 131528Z 16011KT 07/02 A3032 RMK A01 T00720016  RH  067%=      5-min Rain = 0
KBI1 131529Z 16010KT 07/02 A3032 RMK A01 T00720016  RH  067%=      5-min Rain = 0
KBI1 131530Z 16009KT 07/02 A3033 RMK A01 T00720016  RH  067%=      5-min Rain = 0
KBI1 131531Z 15007KT 07/02 A3032 RMK A01 T00720016  RH  067%=      5-min Rain = 0
KBI1 131532Z 15007KT 07/02 A3032 RMK A01 T00730016  RH  067%=      5-min Rain = 0
KBI1 131533Z 15007KT 07/02 A3032 RMK A01 T00740016  RH  067%=      5-min Rain = 0
KBI1 131534Z 16009KT 07/02 A3032 RMK A01 T00740017  RH  067%=      5-min Rain = 0
KBI1 131535Z 15009KT 08/02 A3032 RMK A01 T00750017  RH  067%=      5-min Rain = 0
KBI1 131536Z 16010KT 08/02 A3032 RMK A01 T00760018  RH  067%=      5-min Rain = 0
KBI1 131537Z 16010G15KT 08/02 A3032 RMK A01 T00750018  RH  067%=      5-min Rain = 0
KBI1 131538Z 16009KT 08/02 A3032 RMK A01 T00760019  RH  067%=      5-min Rain = 0
KBI1 131539Z 15010KT 08/02 A3032 RMK A01 T00760018  RH  067%=      5-min Rain = 0
KBI1 131540Z 16011KT 08/02 A3032 RMK A01 T00760018  RH  067%=      5-min Rain = 0
KBI1 131541Z 15011KT 08/02 A3032 RMK A01 T00760018  RH  067%=      5-min Rain = 0
KBI1 131542Z 16010KT 08/02 A3032 RMK A01 T00750018  RH  067%=      5-min Rain = 0
KBI1 131543Z 16009KT 08/02 A3032 RMK A01 T00760018  RH  067%=      5-min Rain = 0
KBI1 131544Z 15007KT 08/02 A3033 RMK A01 T00760018  RH  066%=      5-min Rain = 0
KBI1 131545Z 15008KT 08/02 A3033 RMK A01 T00770018  RH  066%=      5-min Rain = 0
KBI1 131546Z 16008KT 08/02 A3033 RMK A01 T00780018  RH  066%=      5-min Rain = 0
KBI1 131547Z 16009KT 08/02 A3033 RMK A01 T00780018  RH  066%=      5-min Rain = 0
KBI1 131548Z 16007KT 08/02 A3033 RMK A01 T00780019  RH  066%=      5-min Rain = 0
KBI1 131549Z 15006KT 08/02 A3033 RMK A01 T00780018  RH  066%=      5-min Rain = 0
KBI1 131550Z 15008KT 08/02 A3033 RMK A01 T00790019  RH  066%=      5-min Rain = 0
KBI1 131551Z 16007KT 08/02 A3033 RMK A01 T00790019  RH  066%=      5-min Rain = 0
KBI1 131552Z 16006KT 08/02 A3033 RMK A01 T00790020  RH  066%=      5-min Rain = 0
KBI1 131553Z 17009KT 08/02 A3033 RMK A01 T00800020  RH  066%=      5-min Rain = 0
KBI1 131554Z 17010KT 08/02 A3033 RMK A01 T00810020  RH  065%=      5-min Rain = 0
KBI1 131555Z 16008KT 08/02 A3033 RMK A01 T00810020  RH  065%=      5-min Rain = 0
KBI1 131556Z 16006KT 08/02 A3033 RMK A01 T00800020  RH  066%=      5-min Rain = 0
KBI1 131557Z 16008KT 08/02 A3033 RMK A01 T00810021  RH  066%=      5-min Rain = 0
KBI1 131558Z 15009KT 08/02 A3033 RMK A01 T00820022  RH  066%=      5-min Rain = 0
KBI1 131559Z 16010KT 08/02 A3033 RMK A01 T00820022  RH  066%=      5-min Rain = 0
KBI1 131600Z 15008KT 08/02 A3033 RMK A01 T00820023  RH  066%=      5-min Rain = 0
KBI1 131601Z 15010KT 08/02 A3033 RMK A01 T00820024  RH  067%=      5-min Rain = 0
KBI1 131602Z 14008KT 08/02 A3033 RMK A01 T00810023  RH  067%=      5-min Rain = 0
KBI1 131603Z 15008KT 08/02 A3033 RMK A01 T00820023  RH  066%=      5-min Rain = 0
KBI1 131604Z 16009KT 08/02 A3033 RMK A01 T00830023  RH  066%=      5-min Rain = 0
KBI1 131605Z 15007KT 08/02 A3033 RMK A01 T00830023  RH  066%=      5-min Rain = 0
KBI1 131606Z 15005KT 09/02 A3033 RMK A01 T00850024  RH  066%=      5-min Rain = 0
KBI1 131607Z 14006KT 09/02 A3033 RMK A01 T00870024  RH  065%=      5-min Rain = 0
KBI1 131608Z 14008KT 09/02 A3033 RMK A01 T00870023  RH  064%=      5-min Rain = 0
KBI1 131609Z 15007KT 09/02 A3033 RMK A01 T00870023  RH  064%=      5-min Rain = 0
KBI1 131610Z 16009KT 09/02 A3033 RMK A01 T00880024  RH  064%=      5-min Rain = 0
KBI1 131611Z 14008KT 09/02 A3033 RMK A01 T00880023  RH  064%=      5-min Rain = 0
KBI1 131612Z 15008KT 09/03 A3033 RMK A01 T00880025  RH  064%=      5-min Rain = 0
KBI1 131613Z 16010KT 09/03 A3033 RMK A01 T00900026  RH  064%=      5-min Rain = 0
KBI1 131614Z 16009KT 09/03 A3033 RMK A01 T00890025  RH  064%=      5-min Rain = 0
KBI1 131615Z 16008KT 09/03 A3033 RMK A01 T00880026  RH  065%=      5-min Rain = 0
KBI1 131616Z 15007KT 09/03 A3033 RMK A01 T00890027  RH  065%=      5-min Rain = 0
KBI1 131617Z 14008KT 09/03 A3033 RMK A01 T00910026  RH  064%=      5-min Rain = 0
KBI1 131618Z 14007KT 09/03 A3033 RMK A01 T00900026  RH  064%=      5-min Rain = 0
KBI1 131619Z 15007KT 09/03 A3033 RMK A01 T00890027  RH  065%=      5-min Rain = 0
KBI1 131620Z 14006KT 09/03 A3033 RMK A01 T00880027  RH  065%=      5-min Rain = 0
KBI1 131621Z 15006G11KT 09/03 A3033 RMK A01 T00880027  RH  066%=      5-min Rain = 0
KBI1 131622Z 15007KT 09/03 A3034 RMK A01 T00890027  RH  065%=      5-min Rain = 0
KBI1 131623Z 14011KT 09/03 A3034 RMK A01 T00890028  RH  066%=      5-min Rain = 0
KBI1 131624Z 16010G15KT 09/03 A3034 RMK A01 T00890029  RH  066%=      5-min Rain = 0
KBI1 131625Z 17011KT 09/03 A3034 RMK A01 T00880030  RH  067%=      5-min Rain = 0
KBI1 131626Z 16011KT 09/03 A3034 RMK A01 T00880030  RH  067%=      5-min Rain = 0
KBI1 131627Z 16010KT 09/03 A3034 RMK A01 T00880031  RH  067%=      5-min Rain = 0
KBI1 131628Z 16010KT 09/03 A3034 RMK A01 T00880031  RH  067%=      5-min Rain = 0
KBI1 131629Z 15009KT 09/03 A3034 RMK A01 T00900032  RH  067%=      5-min Rain = 0
KBI1 131630Z 15011KT 09/03 A3034 RMK A01 T00900031  RH  067%=      5-min Rain = 0
KBI1 131631Z 15009KT 09/03 A3034 RMK A01 T00900032  RH  067%=      5-min Rain = 0
KBI1 131632Z 16011KT 09/03 A3034 RMK A01 T00900032  RH  067%=      5-min Rain = 0
KBI1 131633Z 16012KT 09/03 A3034 RMK A01 T00900032  RH  067%=      5-min Rain = 0
KBI1 131634Z 16009KT 09/03 A3034 RMK A01 T00900032  RH  067%=      5-min Rain = 0
KBI1 131635Z 16007KT 09/03 A3034 RMK A01 T00910032  RH  067%=      5-min Rain = 0
KBI1 131636Z 17009G14KT 09/03 A3034 RMK A01 T00930033  RH  066%=      5-min Rain = 0
KBI1 131637Z 16011KT 10/03 A3034 RMK A01 T00950033  RH  065%=      5-min Rain = 0
KBI1 131638Z 15011KT 09/03 A3034 RMK A01 T00940032  RH  065%=      5-min Rain = 0
KBI1 131639Z 17011KT 09/03 A3034 RMK A01 T00920032  RH  066%=      5-min Rain = 0
KBI1 131640Z 17012KT 09/03 A3034 RMK A01 T00920032  RH  066%=      5-min Rain = 0
KBI1 131641Z 17009KT 09/03 A3034 RMK A01 T00920033  RH  066%=      5-min Rain = 0
KBI1 131642Z 17008KT 09/03 A3034 RMK A01 T00930031  RH  065%=      5-min Rain = 0
KBI1 131643Z 17008KT 09/03 A3034 RMK A01 T00940030  RH  065%=      5-min Rain = 0
KBI1 131644Z 16009KT 10/03 A3034 RMK A01 T00960032  RH  064%=      5-min Rain = 0
KBI1 131645Z 16010KT 10/03 A3034 RMK A01 T00960031  RH  064%=      5-min Rain = 0
KBI1 131646Z 15012KT 10/03 A3034 RMK A01 T00950032  RH  065%=      5-min Rain = 0
KBI1 131647Z 14008KT 10/03 A3034 RMK A01 T00950033  RH  066%=      5-min Rain = 0
KBI1 131648Z 16009KT 10/03 A3034 RMK A01 T00950034  RH  066%=      5-min Rain = 0
KBI1 131649Z 16011KT 10/03 A3034 RMK A01 T00950034  RH  066%=      5-min Rain = 0
KBI1 131650Z 17013KT 10/04 A3034 RMK A01 T00960035  RH  066%=      5-min Rain = 0
KBI1 131651Z 17012KT 10/04 A3034 RMK A01 T00960035  RH  065%=      5-min Rain = 0
KBI1 131652Z 17010G15KT 10/04 A3034 RMK A01 T00970035  RH  065%=      5-min Rain = 0
KBI1 131653Z 17009KT 10/04 A3034 RMK A01 T00980035  RH  065%=      5-min Rain = 0
KBI1 131654Z 16010KT 10/04 A3034 RMK A01 T00980035  RH  065%=      5-min Rain = 0
KBI1 131655Z 17011KT 10/04 A3034 RMK A01 T00980035  RH  065%=      5-min Rain = 0
KBI1 131656Z 17011KT 10/04 A3033 RMK A01 T00990036  RH  065%=      5-min Rain = 0
KBI1 131657Z 16009KT 10/04 A3033 RMK A01 T00990038  RH  065%=      5-min Rain = 0
KBI1 131658Z 16011KT 10/04 A3033 RMK A01 T01000039  RH  066%=      5-min Rain = 0
KBI1 131659Z 16014KT 10/04 A3033 RMK A01 T01010039  RH  066%=      5-min Rain = 0
KBI1 131700Z 15009KT 10/04 A3033 RMK A01 T01000039  RH  066%=      5-min Rain = 0
KBI1 131701Z 16010KT 10/04 A3033 RMK A01 T01000039  RH  066%=      5-min Rain = 0
KBI1 131702Z 15008KT 10/04 A3033 RMK A01 T01000039  RH  066%=      5-min Rain = 0
KBI1 131703Z 15009KT 10/04 A3033 RMK A01 T01000038  RH  065%=      5-min Rain = 0
KBI1 131704Z 14008KT 10/04 A3033 RMK A01 T01000039  RH  066%=      5-min Rain = 0
KBI1 131705Z 15011KT 10/04 A3033 RMK A01 T01000039  RH  066%=      5-min Rain = 0
KBI1 131706Z 14010G15KT 10/04 A3033 RMK A01 T01000040  RH  066%=      5-min Rain = 0
KBI1 131707Z 16012KT 10/04 A3033 RMK A01 T01000040  RH  066%=      5-min Rain = 0
KBI1 131708Z 16012KT 10/04 A3033 RMK A01 T01000039  RH  066%=      5-min Rain = 0
KBI1 131709Z 15012KT 10/04 A3033 RMK A01 T01000040  RH  066%=      5-min Rain = 0
KBI1 131710Z 15010KT 10/04 A3033 RMK A01 T01000041  RH  066%=      5-min Rain = 0
KBI1 131711Z 15010KT 10/04 A3033 RMK A01 T01000040  RH  066%=      5-min Rain = 0
KBI1 131712Z 15012KT 10/04 A3033 RMK A01 T01010039  RH  065%=      5-min Rain = 0
KBI1 131713Z 14011KT 10/04 A3033 RMK A01 T01010041  RH  066%=      5-min Rain = 0
KBI1 131714Z 15011G16KT 10/04 A3033 RMK A01 T01010041  RH  066%=      5-min Rain = 0
KBI1 131715Z 15012KT 10/04 A3033 RMK A01 T01010040  RH  066%=      5-min Rain = 0
KBI1 131716Z 17012KT 10/04 A3034 RMK A01 T00990040  RH  066%=      5-min Rain = 0
KBI1 131717Z 16012KT 10/04 A3034 RMK A01 T01000041  RH  067%=      5-min Rain = 0
KBI1 131718Z 16012KT 10/04 A3034 RMK A01 T01020042  RH  066%=      5-min Rain = 0
KBI1 131719Z 17015KT 10/04 A3033 RMK A01 T01020042  RH  066%=      5-min Rain = 0
KBI1 131720Z 17013KT 10/04 A3033 RMK A01 T01020043  RH  067%=      5-min Rain = 0
KBI1 131721Z 16014KT 10/04 A3033 RMK A01 T01020044  RH  067%=      5-min Rain = 0
KBI1 131722Z 16013KT 10/05 A3034 RMK A01 T01030045  RH  067%=      5-min Rain = 0
KBI1 131723Z 17014KT 10/05 A3034 RMK A01 T01040046  RH  067%=      5-min Rain = 0
KBI1 131724Z 17014KT 10/05 A3034 RMK A01 T01040046  RH  067%=      5-min Rain = 0
KBI1 131725Z 17013KT 10/05 A3034 RMK A01 T01040045  RH  067%=      5-min Rain = 0
KBI1 131726Z 17014KT 10/05 A3033 RMK A01 T01040046  RH  067%=      5-min Rain = 0
KBI1 131727Z 16013KT 10/05 A3033 RMK A01 T01040046  RH  067%=      5-min Rain = 0
KBI1 131728Z 15013KT 10/05 A3034 RMK A01 T01030046  RH  068%=      5-min Rain = 0
KBI1 131729Z 16012KT 10/05 A3034 RMK A01 T01040046  RH  067%=      5-min Rain = 0
KBI1 131730Z 16015KT 11/05 A3034 RMK A01 T01050046  RH  067%=      5-min Rain = 0
KBI1 131731Z 16013G18KT 11/05 A3034 RMK A01 T01060047  RH  067%=      5-min Rain = 0
KBI1 131732Z 16013KT 11/05 A3034 RMK A01 T01070048  RH  067%=      5-min Rain = 0
KBI1 131733Z 16012KT 11/05 A3034 RMK A01 T01080048  RH  067%=      5-min Rain = 0
KBI1 131734Z 16014G19KT 11/05 A3033 RMK A01 T01100049  RH  066%=      5-min Rain = 0
KBI1 131735Z 16010KT 11/05 A3033 RMK A01 T01110049  RH  066%=      5-min Rain = 0
KBI1 131736Z 15010KT 11/05 A3033 RMK A01 T01130050  RH  065%=      5-min Rain = 0
KBI1 131737Z 15013KT 11/05 A3033 RMK A01 T01140050  RH  065%=      5-min Rain = 0
KBI1 131738Z 15011KT 11/05 A3033 RMK A01 T01140050  RH  065%=      5-min Rain = 0
KBI1 131739Z 16010KT 11/05 A3033 RMK A01 T01140049  RH  065%=      5-min Rain = 0
KBI1 131740Z 15009KT 11/05 A3033 RMK A01 T01140049  RH  065%=      5-min Rain = 0
KBI1 131741Z 15009KT 12/05 A3033 RMK A01 T01150051  RH  065%=      5-min Rain = 0
KBI1 131742Z 15009KT 12/05 A3033 RMK A01 T01170051  RH  064%=      5-min Rain = 0
KBI1 131743Z 14011KT 12/05 A3033 RMK A01 T01180052  RH  064%=      5-min Rain = 0
KBI1 131744Z 16013KT 12/05 A3033 RMK A01 T01180051  RH  064%=      5-min Rain = 0
KBI1 131745Z 16012KT 12/05 A3033 RMK A01 T01170052  RH  064%=      5-min Rain = 0
KBI1 131746Z 15013KT 12/05 A3032 RMK A01 T01170053  RH  065%=      5-min Rain = 0
KBI1 131747Z 15011G17KT 12/05 A3032 RMK A01 T01180053  RH  064%=      5-min Rain = 0
KBI1 131748Z 14011KT 12/05 A3032 RMK A01 T01180054  RH  065%=      5-min Rain = 0
KBI1 131749Z 15011KT 12/05 A3032 RMK A01 T01180054  RH  065%=      5-min Rain = 0
KBI1 131750Z 15010KT 12/06 A3032 RMK A01 T01180055  RH  066%=      5-min Rain = 0
KBI1 131751Z 16013KT 12/06 A3032 RMK A01 T01190057  RH  066%=      5-min Rain = 0
KBI1 131752Z 16013KT 12/06 A3032 RMK A01 T01180056  RH  066%=      5-min Rain = 0
KBI1 131753Z 15013KT 12/06 A3032 RMK A01 T01180057  RH  066%=      5-min Rain = 0
KBI1 131754Z 16014KT 12/06 A3032 RMK A01 T01170057  RH  066%=      5-min Rain = 0
KBI1 131755Z 16015KT 12/06 A3032 RMK A01 T01170056  RH  066%=      5-min Rain = 0
KBI1 131756Z 16010KT 12/06 A3032 RMK A01 T01160057  RH  067%=      5-min Rain = 0
KBI1 131757Z 17012KT 12/06 A3032 RMK A01 T01190058  RH  066%=      5-min Rain = 0
KBI1 131758Z 15013G18KT 12/06 A3032 RMK A01 T01220059  RH  066%=      5-min Rain = 0
KBI1 131759Z 15014KT 12/06 A3032 RMK A01 T01220060  RH  066%=      5-min Rain = 0
KBI1 131800Z 16016KT 12/06 A3032 RMK A01 T01210060  RH  066%=      5-min Rain = 0
KBI1 131801Z 17016G21KT 12/06 A3032 RMK A01 T01200061  RH  067%=      5-min Rain = 0
KBI1 131802Z 16017KT 12/06 A3032 RMK A01 T01210062  RH  067%=      5-min Rain = 0
KBI1 131803Z 17016KT 12/06 A3032 RMK A01 T01210062  RH  067%=      5-min Rain = 0
KBI1 131804Z 16015KT 12/06 A3032 RMK A01 T01210062  RH  067%=      5-min Rain = 0
KBI1 131805Z 16013KT 12/06 A3032 RMK A01 T01220063  RH  067%=      5-min Rain = 0
KBI1 131806Z 15014KT 12/06 A3032 RMK A01 T01230064  RH  067%=      5-min Rain = 0
KBI1 131807Z 16016KT 12/07 A3032 RMK A01 T01240065  RH  067%=      5-min Rain = 0
KBI1 131808Z 16015KT 12/07 A3032 RMK A01 T01230065  RH  068%=      5-min Rain = 0
KBI1 131809Z 16015KT 12/07 A3032 RMK A01 T01230065  RH  068%=      5-min Rain = 0
KBI1 131810Z 16018KT 12/07 A3032 RMK A01 T01230066  RH  068%=      5-min Rain = 0
KBI1 131811Z 17016KT 12/07 A3032 RMK A01 T01230067  RH  068%=      5-min Rain = 0
KBI1 131812Z 17016KT 12/07 A3032 RMK A01 T01240067  RH  068%=      5-min Rain = 0
KBI1 131813Z 18017KT 13/07 A3031 RMK A01 T01260068  RH  068%=      5-min Rain = 0
KBI1 131814Z 18014KT 13/07 A3031 RMK A01 T01260067  RH  067%=      5-min Rain = 0
KBI1 131815Z 17012KT 13/07 A3031 RMK A01 T01290068  RH  066%=      5-min Rain = 0
KBI1 131816Z 17016KT 13/07 A3031 RMK A01 T01330068  RH  065%=      5-min Rain = 0
KBI1 131817Z 17016KT 13/07 A3031 RMK A01 T01330066  RH  064%=      5-min Rain = 0
KBI1 131818Z 16015KT 13/07 A3031 RMK A01 T01320065  RH  063%=      5-min Rain = 0
KBI1 131819Z 15014G20KT 13/07 A3031 RMK A01 T01310065  RH  064%=      5-min Rain = 0
KBI1 131820Z 16017KT 13/07 A3031 RMK A01 T01310068  RH  066%=      5-min Rain = 0
KBI1 131821Z 15016KT 13/07 A3031 RMK A01 T01290068  RH  067%=      5-min Rain = 0
KBI1 131822Z 16018KT 13/07 A3031 RMK A01 T01280069  RH  068%=      5-min Rain = 0
KBI1 131823Z 17019KT 13/07 A303 RMK A01 T01270070  RH  068%=      5-min Rain = 0
KBI1 131824Z 16018KT 13/07 A303 RMK A01 T01270070  RH  068%=      5-min Rain = 0
KBI1 131825Z 16016KT 13/07 A303 RMK A01 T01280071  RH  068%=      5-min Rain = 0
KBI1 131826Z 17016G22KT 13/07 A303 RMK A01 T01280072  RH  069%=      5-min Rain = 0
KBI1 131827Z 16018G23KT 13/07 A303 RMK A01 T01300073  RH  069%=      5-min Rain = 0
KBI1 131828Z 16015KT 13/07 A303 RMK A01 T01290073  RH  069%=      5-min Rain = 0
KBI1 131829Z 16017G22KT 13/07 A303 RMK A01 T01300074  RH  069%=      5-min Rain = 0
KBI1 131830Z 17019KT 13/07 A303 RMK A01 T01310073  RH  068%=      5-min Rain = 0
KBI1 131831Z 17016G22KT 13/07 A303 RMK A01 T01310074  RH  068%=      5-min Rain = 0
KBI1 131832Z 17021KT 13/07 A303 RMK A01 T01310074  RH  068%=      5-min Rain = 0
KBI1 131833Z 17019KT 13/07 A303 RMK A01 T01310073  RH  068%=      5-min Rain = 0
KBI1 131834Z 16021KT 13/07 A3029 RMK A01 T01320074  RH  068%=      5-min Rain = 0
KBI1 131835Z 17019KT 13/07 A3029 RMK A01 T01310074  RH  068%=      5-min Rain = 0
KBI1 131836Z 17016KT 13/08 A303 RMK A01 T01320075  RH  068%=      5-min Rain = 0
KBI1 131837Z 18018KT 14/08 A303 RMK A01 T01350075  RH  067%=      5-min Rain = 0
KBI1 131838Z 17017KT 14/07 A303 RMK A01 T01360073  RH  066%=      5-min Rain = 0
KBI1 131839Z 17018KT 14/07 A303 RMK A01 T01360073  RH  066%=      5-min Rain = 0
KBI1 131840Z 16015KT 14/07 A303 RMK A01 T01350073  RH  066%=      5-min Rain = 0
KBI1 131841Z 16014KT 14/07 A303 RMK A01 T01360073  RH  066%=      5-min Rain = 0
KBI1 131842Z 18014G19KT 14/07 A303 RMK A01 T01380074  RH  065%=      5-min Rain = 0
KBI1 131843Z 18017KT 14/08 A3029 RMK A01 T01390075  RH  065%=      5-min Rain = 0
KBI1 131844Z 17017G23KT 14/08 A3029 RMK A01 T01420076  RH  065%=      5-min Rain = 0
KBI1 131845Z 17018KT 14/08 A3029 RMK A01 T01430075  RH  064%=      5-min Rain = 0
KBI1 131846Z 17018G27KT 14/08 A3029 RMK A01 T01420075  RH  064%=      5-min Rain = 0
KBI1 131847Z 17022KT 14/08 A3029 RMK A01 T01410077  RH  065%=      5-min Rain = 0
KBI1 131848Z 17020KT 14/08 A3029 RMK A01 T01380077  RH  067%=      5-min Rain = 0
KBI1 131849Z 18021KT 14/08 A3029 RMK A01 T01370077  RH  067%=      5-min Rain = 0
KBI1 131850Z 17018KT 13/08 A3029 RMK A01 T01340076  RH  068%=      5-min Rain = 0
KBI1 131851Z 17015G20KT 14/08 A3029 RMK A01 T01350077  RH  068%=      5-min Rain = 0
KBI1 131852Z 17017G25KT 14/08 A3029 RMK A01 T01380078  RH  067%=      5-min Rain = 0
KBI1 131853Z 17023KT 14/08 A3029 RMK A01 T01390077  RH  066%=      5-min Rain = 0
KBI1 131854Z 16020G25KT 14/08 A3029 RMK A01 T01370077  RH  067%=      5-min Rain = 0
KBI1 131855Z 17018KT 14/08 A3029 RMK A01 T01360077  RH  068%=      5-min Rain = 0
KBI1 131856Z 17019KT 14/08 A3029 RMK A01 T01370078  RH  068%=      5-min Rain = 0
KBI1 131857Z 17022KT 14/08 A3029 RMK A01 T01370078  RH  067%=      5-min Rain = 0
KBI1 131858Z 17017KT 14/08 A3029 RMK A01 T01360078  RH  068%=      5-min Rain = 0
KBI1 131859Z 17020KT 14/08 A3029 RMK A01 T01360079  RH  068%=      5-min Rain = 0
KBI1 131900Z 16019KT 14/08 A3029 RMK A01 T01370079  RH  068%=      5-min Rain = 0
KBI1 131901Z 17016KT 14/08 A3029 RMK A01 T01370079  RH  068%=      5-min Rain = 0
KBI1 131902Z 17016KT 14/08 A3029 RMK A01 T01390080  RH  067%=      5-min Rain = 0
KBI1 131903Z 18017KT 14/08 A3029 RMK A01 T01390080  RH  067%=      5-min Rain = 0
KBI1 131904Z 18016KT 14/08 A3029 RMK A01 T01400080  RH  067%=      5-min Rain = 0
KBI1 131905Z 17018KT 14/08 A3029 RMK A01 T01400080  RH  067%=      5-min Rain = 0
KBI1 131906Z 17017KT 14/08 A3029 RMK A01 T01390080  RH  067%=      5-min Rain = 0
KBI1 131907Z 17016G22KT 14/08 A3029 RMK A01 T01410081  RH  067%=      5-min Rain = 0
KBI1 131908Z 17020KT 14/08 A3029 RMK A01 T01430081  RH  066%=      5-min Rain = 0
KBI1 131909Z 18022KT 14/08 A3029 RMK A01 T01440081  RH  066%=      5-min Rain = 0
KBI1 131910Z 18019KT 14/08 A3029 RMK A01 T01440081  RH  066%=      5-min Rain = 0
KBI1 131911Z 17018G23KT 15/08 A3028 RMK A01 T01450080  RH  065%=      5-min Rain = 0
KBI1 131912Z 17015G20KT 15/08 A3028 RMK A01 T01460081  RH  065%=      5-min Rain = 0
KBI1 131913Z 18015G22KT 15/08 A3028 RMK A01 T01490082  RH  064%=      5-min Rain = 0
KBI1 131914Z 18021KT 15/08 A3028 RMK A01 T01510081  RH  063%=      5-min Rain = 0
KBI1 131915Z 18019G26KT 15/08 A3028 RMK A01 T01490081  RH  064%=      5-min Rain = 0
KBI1 131916Z 18018KT 15/08 A3028 RMK A01 T01510081  RH  063%=      5-min Rain = 0
KBI1 131917Z 19016G21KT 15/08 A3029 RMK A01 T01520081  RH  063%=      5-min Rain = 0
KBI1 131918Z 18019G24KT 15/08 A3029 RMK A01 T01520081  RH  062%=      5-min Rain = 0
KBI1 131919Z 18020G26KT 15/08 A3029 RMK A01 T01530081  RH  062%=      5-min Rain = 0
KBI1 131920Z 18017KT 15/08 A3029 RMK A01 T01530080  RH  062%=      5-min Rain = 0
KBI1 131921Z 18021KT 15/08 A3029 RMK A01 T01520080  RH  062%=      5-min Rain = 0
KBI1 131922Z 18016KT 15/08 A3029 RMK A01 T01520080  RH  062%=      5-min Rain = 0
KBI1 131923Z 18014KT 15/08 A3029 RMK A01 T01540081  RH  062%=      5-min Rain = 0
KBI1 131924Z 17015KT 16/08 A3029 RMK A01 T01560081  RH  061%=      5-min Rain = 0
KBI1 131925Z 17014G19KT 16/08 A3029 RMK A01 T01570081  RH  060%=      5-min Rain = 0
KBI1 131926Z 18013KT 16/08 A3029 RMK A01 T01580082  RH  061%=      5-min Rain = 0
KBI1 131927Z 18015KT 16/08 A3029 RMK A01 T01590081  RH  059%=      5-min Rain = 0
KBI1 131928Z 18017KT 16/08 A3028 RMK A01 T01580079  RH  060%=      5-min Rain = 0
KBI1 131929Z 18014KT 16/08 A3028 RMK A01 T01570080  RH  060%=      5-min Rain = 0
KBI1 131930Z 18018G23KT 16/08 A3028 RMK A01 T01570080  RH  060%=      5-min Rain = 0
KBI1 131931Z 18018KT 16/08 A3028 RMK A01 T01580079  RH  059%=      5-min Rain = 0
KBI1 131932Z 16021KT 16/08 A3028 RMK A01 T01560079  RH  060%=      5-min Rain = 0
KBI1 131933Z 17017KT 15/08 A3028 RMK A01 T01530079  RH  061%=      5-min Rain = 0
KBI1 131934Z 16017KT 15/08 A3028 RMK A01 T01540080  RH  061%=      5-min Rain = 0
KBI1 131935Z 16017G23KT 15/08 A3028 RMK A01 T01540080  RH  061%=      5-min Rain = 0
KBI1 131936Z 16020G25KT 15/08 A3027 RMK A01 T01540080  RH  061%=      5-min Rain = 0
KBI1 131937Z 15020KT 15/08 A3027 RMK A01 T01530079  RH  061%=      5-min Rain = 0
KBI1 131938Z 16017KT 15/08 A3027 RMK A01 T01530079  RH  061%=      5-min Rain = 0
KBI1 131939Z 16017G23KT 15/08 A3027 RMK A01 T01540080  RH  061%=      5-min Rain = 0
KBI1 131940Z 16018KT 16/08 A3028 RMK A01 T01560080  RH  061%=      5-min Rain = 0
KBI1 131941Z 16017KT 16/08 A3028 RMK A01 T01550079  RH  060%=      5-min Rain = 0
KBI1 131942Z 17016KT 15/08 A3028 RMK A01 T01540079  RH  061%=      5-min Rain = 0
KBI1 131943Z 16016G21KT 16/08 A3027 RMK A01 T01550079  RH  061%=      5-min Rain = 0
KBI1 131944Z 17018KT 16/08 A3027 RMK A01 T01560079  RH  060%=      5-min Rain = 0
KBI1 131945Z 16016G22KT 16/08 A3027 RMK A01 T01560079  RH  060%=      5-min Rain = 0
KBI1 131946Z 16019KT 16/08 A3027 RMK A01 T01570078  RH  060%=      5-min Rain = 0
KBI1 131947Z 16015G21KT 16/08 A3027 RMK A01 T01570079  RH  060%=      5-min Rain = 0
KBI1 131948Z 17016KT 16/08 A3027 RMK A01 T01570079  RH  060%=      5-min Rain = 0
KBI1 131949Z 17017KT 16/08 A3027 RMK A01 T01560078  RH  060%=      5-min Rain = 0
KBI1 131950Z 16015KT 16/08 A3027 RMK A01 T01560078  RH  060%=      5-min Rain = 0
KBI1 131951Z 16013KT 16/08 A3027 RMK A01 T01550078  RH  060%=      5-min Rain = 0
KBI1 131952Z 16014KT 15/08 A3027 RMK A01 T01540079  RH  061%=      5-min Rain = 0
KBI1 131953Z 16013G19KT 15/08 A3027 RMK A01 T01540078  RH  060%=      5-min Rain = 0
KBI1 131954Z 17018KT 16/08 A3026 RMK A01 T01560078  RH  060%=      5-min Rain = 0
KBI1 131955Z 16019KT 16/08 A3026 RMK A01 T01550077  RH  060%=      5-min Rain = 0
KBI1 131956Z 17014KT 15/08 A3026 RMK A01 T01540077  RH  060%=      5-min Rain = 0
KBI1 131957Z 16015KT 16/08 A3026 RMK A01 T01570079  RH  060%=      5-min Rain = 0
KBI1 131958Z 17012G17KT 16/08 A3026 RMK A01 T01590079  RH  059%=      5-min Rain = 0
KBI1 131959Z 16013KT 16/08 A3026 RMK A01 T01610079  RH  058%=      5-min Rain = 0
KBI1 132000Z 18015KT 16/08 A3026 RMK A01 T01620079  RH  058%=      5-min Rain = 0
KBI1 132001Z 17016KT 16/08 A3026 RMK A01 T01620078  RH  057%=      5-min Rain = 0
KBI1 132002Z 16015KT 16/08 A3026 RMK A01 T01620078  RH  058%=      5-min Rain = 0
KBI1 132003Z 17017KT 16/08 A3026 RMK A01 T01610079  RH  058%=      5-min Rain = 0
KBI1 132004Z 18018KT 16/08 A3026 RMK A01 T01610077  RH  057%=      5-min Rain = 0
KBI1 132005Z 18014KT 16/08 A3026 RMK A01 T01620078  RH  057%=      5-min Rain = 0
KBI1 132006Z 17015KT 16/08 A3025 RMK A01 T01640078  RH  057%=      5-min Rain = 0
KBI1 132007Z 16017KT 16/08 A3025 RMK A01 T01640077  RH  057%=      5-min Rain = 0
KBI1 132008Z 17015G21KT 16/08 A3025 RMK A01 T01620078  RH  057%=      5-min Rain = 0
KBI1 132009Z 17014KT 17/08 A3025 RMK A01 T01650078  RH  057%=      5-min Rain = 0
KBI1 132010Z 17017KT 17/08 A3025 RMK A01 T01670079  RH  056%=      5-min Rain = 0
KBI1 132011Z 18014KT 17/08 A3025 RMK A01 T01650079  RH  057%=      5-min Rain = 0
KBI1 132012Z 17018KT 17/08 A3025 RMK A01 T01660079  RH  056%=      5-min Rain = 0
KBI1 132013Z 17015KT 16/08 A3025 RMK A01 T01640078  RH  057%=      5-min Rain = 0
KBI1 132014Z 17014KT 17/08 A3025 RMK A01 T01650079  RH  057%=      5-min Rain = 0
KBI1 132015Z 18014KT 17/08 A3025 RMK A01 T01700080  RH  055%=      5-min Rain = 0
KBI1 132016Z 17013KT 17/08 A3025 RMK A01 T01720080  RH  054%=      5-min Rain = 0
KBI1 132017Z 18015G22KT 17/08 A3025 RMK A01 T01730080  RH  054%=      5-min Rain = 0
KBI1 132018Z 18016KT 17/08 A3025 RMK A01 T01720078  RH  054%=      5-min Rain = 0
KBI1 132019Z 17017KT 17/08 A3025 RMK A01 T01680077  RH  055%=      5-min Rain = 0
KBI1 132020Z 17017KT 17/08 A3025 RMK A01 T01670078  RH  055%=      5-min Rain = 0
KBI1 132021Z 17015G20KT 17/08 A3025 RMK A01 T01700078  RH  055%=      5-min Rain = 0
KBI1 132022Z 18017KT 17/08 A3025 RMK A01 T01700077  RH  054%=      5-min Rain = 0
KBI1 132023Z 16017G22KT 17/08 A3025 RMK A01 T01690078  RH  055%=      5-min Rain = 0
KBI1 132024Z 17018G23KT 17/08 A3025 RMK A01 T01670077  RH  055%=      5-min Rain = 0
KBI1 132025Z 17014KT 16/08 A3025 RMK A01 T01640077  RH  056%=      5-min Rain = 0
KBI1 132026Z 17019KT 16/08 A3025 RMK A01 T01640077  RH  056%=      5-min Rain = 0
KBI1 132027Z 16014G19KT 16/08 A3025 RMK A01 T01640077  RH  056%=      5-min Rain = 0
KBI1 132028Z 17014KT 17/08 A3025 RMK A01 T01650078  RH  056%=      5-min Rain = 0
KBI1 132029Z 17016KT 17/08 A3025 RMK A01 T01660077  RH  056%=      5-min Rain = 0
KBI1 132030Z 17018KT 17/08 A3025 RMK A01 T01670078  RH  056%=      5-min Rain = 0
KBI1 132031Z 17017KT 17/08 A3025 RMK A01 T01660077  RH  056%=      5-min Rain = 0
KBI1 132032Z 17014G21KT 17/08 A3025 RMK A01 T01650078  RH  056%=      5-min Rain = 0
KBI1 132033Z 18019KT 17/08 A3025 RMK A01 T01670078  RH  056%=      5-min Rain = 0
KBI1 132034Z 18018KT 17/08 A3025 RMK A01 T01660078  RH  056%=      5-min Rain = 0
KBI1 132035Z 17016KT 17/08 A3025 RMK A01 T01680079  RH  055%=      5-min Rain = 0
KBI1 132036Z 17015G20KT 17/08 A3025 RMK A01 T01700079  RH  055%=      5-min Rain = 0
KBI1 132037Z 16017KT 17/08 A3024 RMK A01 T01720079  RH  054%=      5-min Rain = 0
KBI1 132038Z 16016KT 17/08 A3024 RMK A01 T01710078  RH  054%=      5-min Rain = 0
KBI1 132039Z 16016G21KT 17/08 A3024 RMK A01 T01710078  RH  054%=      5-min Rain = 0
KBI1 132040Z 15015G20KT 17/08 A3024 RMK A01 T01710078  RH  055%=      5-min Rain = 0
KBI1 132041Z 17017KT 17/08 A3025 RMK A01 T01710078  RH  054%=      5-min Rain = 0
KBI1 132042Z 17018G24KT 17/08 A3025 RMK A01 T01710078  RH  054%=      5-min Rain = 0
KBI1 132043Z 17020KT 17/08 A3025 RMK A01 T01700076  RH  054%=      5-min Rain = 0
KBI1 132044Z 17017KT 17/08 A3025 RMK A01 T01690076  RH  054%=      5-min Rain = 0
KBI1 132045Z 17017KT 17/08 A3025 RMK A01 T01720077  RH  054%=      5-min Rain = 0
KBI1 132046Z 18016KT 17/08 A3025 RMK A01 T01720076  RH  053%=      5-min Rain = 0
KBI1 132047Z 19016KT 17/08 A3025 RMK A01 T01730077  RH  053%=      5-min Rain = 0
KBI1 132048Z 19016KT 17/08 A3025 RMK A01 T01740077  RH  053%=      5-min Rain = 0
KBI1 132049Z 18017G22KT 18/08 A3025 RMK A01 T01750077  RH  053%=      5-min Rain = 0
KBI1 132050Z 16016KT 17/08 A3025 RMK A01 T01740077  RH  053%=      5-min Rain = 0
KBI1 132051Z 16014KT 17/08 A3025 RMK A01 T01720077  RH  053%=      5-min Rain = 0
KBI1 132052Z 16014KT 17/08 A3025 RMK A01 T01720077  RH  054%=      5-min Rain = 0
KBI1 132053Z 17017KT 17/08 A3025 RMK A01 T01730077  RH  053%=      5-min Rain = 0
KBI1 132054Z 16015KT 17/08 A3025 RMK A01 T01730076  RH  053%=      5-min Rain = 0
KBI1 132055Z 16015KT 17/08 A3024 RMK A01 T01710076  RH  053%=      5-min Rain = 0
KBI1 132056Z 16013KT 17/08 A3024 RMK A01 T01690076  RH  054%=      5-min Rain = 0
KBI1 132057Z 16014G19KT 17/08 A3024 RMK A01 T01690075  RH  054%=      5-min Rain = 0
KBI1 132058Z 18011KT 17/08 A3024 RMK A01 T01690076  RH  054%=      5-min Rain = 0
KBI1 132059Z 17013KT 17/08 A3024 RMK A01 T01710076  RH  053%=      5-min Rain = 0
KBI1 132100Z 18014KT 17/08 A3024 RMK A01 T01720075  RH  053%=      5-min Rain = 0
KBI1 132101Z 16014KT 17/08 A3024 RMK A01 T01710075  RH  053%=      5-min Rain = 0
KBI1 132102Z 16014KT 17/08 A3024 RMK A01 T01700075  RH  053%=      5-min Rain = 0
KBI1 132103Z 15014KT 17/08 A3024 RMK A01 T01690075  RH  054%=      5-min Rain = 0
KBI1 132104Z 16012G19KT 17/08 A3024 RMK A01 T01690076  RH  054%=      5-min Rain = 0
KBI1 132105Z 16014KT 17/08 A3024 RMK A01 T01720076  RH  053%=      5-min Rain = 0
KBI1 132106Z 16013KT 17/08 A3024 RMK A01 T01720075  RH  053%=      5-min Rain = 0
KBI1 132107Z 15012KT 17/08 A3024 RMK A01 T01720075  RH  053%=      5-min Rain = 0
KBI1 132108Z 17011KT 17/08 A3024 RMK A01 T01710075  RH  053%=      5-min Rain = 0
KBI1 132109Z 17015KT 17/08 A3024 RMK A01 T01710075  RH  053%=      5-min Rain = 0
KBI1 132110Z 16012KT 17/08 A3024 RMK A01 T01710075  RH  053%=      5-min Rain = 0
KBI1 132111Z 17012KT 17/08 A3024 RMK A01 T01710075  RH  053%=      5-min Rain = 0
KBI1 132112Z 17010KT 17/07 A3024 RMK A01 T01710074  RH  053%=      5-min Rain = 0
KBI1 132113Z 17011KT 17/07 A3024 RMK A01 T01730074  RH  052%=      5-min Rain = 0
KBI1 132114Z 17016KT 17/07 A3024 RMK A01 T01730074  RH  052%=      5-min Rain = 0
KBI1 132115Z 17016KT 17/07 A3024 RMK A01 T01710074  RH  053%=      5-min Rain = 0
KBI1 132116Z 18013G19KT 17/08 A3024 RMK A01 T01700075  RH  054%=      5-min Rain = 0
KBI1 132117Z 18013KT 17/08 A3024 RMK A01 T01700075  RH  054%=      5-min Rain = 0
KBI1 132118Z 17012KT 17/08 A3024 RMK A01 T01690076  RH  054%=      5-min Rain = 0
KBI1 132119Z 17014KT 17/08 A3024 RMK A01 T01690075  RH  054%=      5-min Rain = 0
KBI1 132120Z 17013KT 17/07 A3024 RMK A01 T01690073  RH  053%=      5-min Rain = 0
KBI1 132121Z 18011KT 17/08 A3024 RMK A01 T01700075  RH  053%=      5-min Rain = 0
KBI1 132122Z 18015KT 17/08 A3024 RMK A01 T01710075  RH  053%=      5-min Rain = 0
KBI1 132123Z 18014KT 17/08 A3024 RMK A01 T01710076  RH  053%=      5-min Rain = 0
KBI1 132124Z 18014KT 17/08 A3024 RMK A01 T01710076  RH  053%=      5-min Rain = 0
KBI1 132125Z 18016KT 17/08 A3024 RMK A01 T01730076  RH  053%=      5-min Rain = 0
KBI1 132126Z 18013KT 17/08 A3024 RMK A01 T01730076  RH  053%=      5-min Rain = 0
KBI1 132127Z 17013KT 17/08 A3024 RMK A01 T01740077  RH  053%=      5-min Rain = 0
KBI1 132128Z 17015KT 18/08 A3024 RMK A01 T01750076  RH  052%=      5-min Rain = 0
KBI1 132129Z 18014KT 18/08 A3024 RMK A01 T01750077  RH  052%=      5-min Rain = 0
KBI1 132130Z 18014KT 18/08 A3024 RMK A01 T01770078  RH  052%=      5-min Rain = 0
KBI1 132131Z 18016KT 18/08 A3024 RMK A01 T01790078  RH  052%=      5-min Rain = 0
KBI1 132132Z 18016KT 18/08 A3024 RMK A01 T01770077  RH  052%=      5-min Rain = 0
KBI1 132133Z 17012KT 18/08 A3024 RMK A01 T01770077  RH  052%=      5-min Rain = 0
KBI1 132134Z 17012KT 18/08 A3024 RMK A01 T01780078  RH  052%=      5-min Rain = 0
KBI1 132135Z 17016KT 18/08 A3024 RMK A01 T01780077  RH  052%=      5-min Rain = 0
KBI1 132136Z 17012KT 18/08 A3024 RMK A01 T01750076  RH  052%=      5-min Rain = 0
KBI1 132137Z 17014KT 18/08 A3024 RMK A01 T01750077  RH  053%=      5-min Rain = 0
KBI1 132138Z 16011KT 17/08 A3024 RMK A01 T01740078  RH  053%=      5-min Rain = 0
KBI1 132139Z 16013KT 17/08 A3024 RMK A01 T01740078  RH  053%=      5-min Rain = 0
KBI1 132140Z 15014KT 17/08 A3024 RMK A01 T01740079  RH  054%=      5-min Rain = 0
KBI1 132141Z 15011KT 17/08 A3024 RMK A01 T01730079  RH  054%=      5-min Rain = 0
KBI1 132142Z 17015KT 17/08 A3024 RMK A01 T01720079  RH  054%=      5-min Rain = 0
KBI1 132143Z 18017KT 17/08 A3023 RMK A01 T01710077  RH  054%=      5-min Rain = 0
KBI1 132144Z 17014KT 17/08 A3024 RMK A01 T01700075  RH  053%=      5-min Rain = 0
KBI1 132145Z 17015KT 17/08 A3024 RMK A01 T01710075  RH  053%=      5-min Rain = 0
KBI1 132146Z 16012KT 17/08 A3024 RMK A01 T01700076  RH  054%=      5-min Rain = 0
KBI1 132147Z 17016KT 17/08 A3024 RMK A01 T01710077  RH  054%=      5-min Rain = 0
KBI1 132148Z 17013KT 17/08 A3024 RMK A01 T01710075  RH  053%=      5-min Rain = 0
KBI1 132149Z 18014G20KT 17/08 A3024 RMK A01 T01710075  RH  053%=      5-min Rain = 0
KBI1 132150Z 17015KT 17/07 A3024 RMK A01 T01710074  RH  053%=      5-min Rain = 0
KBI1 132151Z 17014KT 17/07 A3024 RMK A01 T01710074  RH  053%=      5-min Rain = 0
KBI1 132152Z 17016KT 17/07 A3024 RMK A01 T01710074  RH  053%=      5-min Rain = 0
KBI1 132153Z 17017KT 17/08 A3024 RMK A01 T01700075  RH  053%=      5-min Rain = 0
KBI1 132154Z 16015KT 17/07 A3024 RMK A01 T01690074  RH  054%=      5-min Rain = 0
KBI1 132155Z 16014KT 17/07 A3024 RMK A01 T01680074  RH  054%=      5-min Rain = 0
KBI1 132156Z 17016KT 17/07 A3024 RMK A01 T01680074  RH  054%=      5-min Rain = 0
KBI1 132157Z 17014KT 17/07 A3024 RMK A01 T01680074  RH  054%=      5-min Rain = 0
KBI1 132158Z 17014KT 17/07 A3024 RMK A01 T01670074  RH  054%=      5-min Rain = 0
KBI1 132159Z 17015KT 17/08 A3023 RMK A01 T01670075  RH  055%=      5-min Rain = 0
KBI1 132200Z 17014KT 17/08 A3024 RMK A01 T01670076  RH  055%=      5-min Rain = 0
KBI1 132201Z 16014KT 17/08 A3023 RMK A01 T01670077  RH  055%=      5-min Rain = 0
KBI1 132202Z 17014KT 17/08 A3023 RMK A01 T01670078  RH  056%=      5-min Rain = 0
KBI1 132203Z 17012KT 17/08 A3023 RMK A01 T01660078  RH  056%=      5-min Rain = 0
KBI1 132204Z 17016KT 17/08 A3023 RMK A01 T01660077  RH  056%=      5-min Rain = 0
KBI1 132205Z 17015KT 17/08 A3023 RMK A01 T01660077  RH  056%=      5-min Rain = 0
KBI1 132206Z 17013G18KT 17/08 A3023 RMK A01 T01660077  RH  056%=      5-min Rain = 0
KBI1 132207Z 17014KT 17/08 A3023 RMK A01 T01660078  RH  056%=      5-min Rain = 0
KBI1 132208Z 17014KT 17/08 A3023 RMK A01 T01660077  RH  056%=      5-min Rain = 0
KBI1 132209Z 18014KT 17/08 A3023 RMK A01 T01660077  RH  056%=      5-min Rain = 0
KBI1 132210Z 18013KT 17/08 A3023 RMK A01 T01660077  RH  056%=      5-min Rain = 0
KBI1 132211Z 18015KT 17/08 A3023 RMK A01 T01670078  RH  056%=      5-min Rain = 0
KBI1 132212Z 18015KT 17/08 A3023 RMK A01 T01670078  RH  056%=      5-min Rain = 0
KBI1 132213Z 18012KT 17/08 A3023 RMK A01 T01660078  RH  056%=      5-min Rain = 0
KBI1 132214Z 18013KT 17/08 A3023 RMK A01 T01670078  RH  056%=      5-min Rain = 0
KBI1 132215Z 17015KT 17/08 A3023 RMK A01 T01670078  RH  056%=      5-min Rain = 0
KBI1 132216Z 17014KT 17/08 A3023 RMK A01 T01670079  RH  056%=      5-min Rain = 0
KBI1 132217Z 16015KT 17/08 A3023 RMK A01 T01670079  RH  056%=      5-min Rain = 0
KBI1 132218Z 16014KT 17/08 A3023 RMK A01 T01660079  RH  056%=      5-min Rain = 0
KBI1 132219Z 16011KT 17/08 A3023 RMK A01 T01660079  RH  056%=      5-min Rain = 0
KBI1 132220Z 17015G20KT 17/08 A3023 RMK A01 T01660079  RH  056%=      5-min Rain = 0
KBI1 132221Z 17016KT 17/08 A3023 RMK A01 T01660079  RH  056%=      5-min Rain = 0
KBI1 132222Z 16014KT 17/08 A3023 RMK A01 T01650079  RH  057%=      5-min Rain = 0
KBI1 132223Z 16015G20KT 16/08 A3023 RMK A01 T01640079  RH  057%=      5-min Rain = 0
KBI1 132224Z 16014KT 16/08 A3023 RMK A01 T01640079  RH  057%=      5-min Rain = 0
KBI1 132225Z 16012KT 16/08 A3023 RMK A01 T01630080  RH  058%=      5-min Rain = 0
KBI1 132226Z 16014KT 16/08 A3023 RMK A01 T01630080  RH  058%=      5-min Rain = 0
KBI1 132227Z 16017KT 16/08 A3023 RMK A01 T01630080  RH  058%=      5-min Rain = 0
KBI1 132228Z 16012G17KT 16/08 A3023 RMK A01 T01630079  RH  058%=      5-min Rain = 0
KBI1 132229Z 16016KT 16/08 A3023 RMK A01 T01620079  RH  058%=      5-min Rain = 0
KBI1 132230Z 16016KT 16/08 A3023 RMK A01 T01620079  RH  058%=      5-min Rain = 0
KBI1 132231Z 16014KT 16/08 A3023 RMK A01 T01610080  RH  058%=      5-min Rain = 0
KBI1 132232Z 18012KT 16/08 A3023 RMK A01 T01610079  RH  058%=      5-min Rain = 0
KBI1 132233Z 17016G21KT 16/08 A3023 RMK A01 T01630080  RH  058%=      5-min Rain = 0
KBI1 132234Z 16017KT 16/08 A3023 RMK A01 T01630078  RH  057%=      5-min Rain = 0
KBI1 132235Z 17015KT 16/08 A3023 RMK A01 T01620078  RH  058%=      5-min Rain = 0
KBI1 132236Z 16013KT 16/08 A3023 RMK A01 T01610078  RH  058%=      5-min Rain = 0
KBI1 132237Z 16016KT 16/08 A3023 RMK A01 T01610079  RH  058%=      5-min Rain = 0
KBI1 132238Z 16014KT 16/08 A3023 RMK A01 T01610080  RH  058%=      5-min Rain = 0
KBI1 132239Z 17017KT 16/08 A3023 RMK A01 T01610079  RH  058%=      5-min Rain = 0
KBI1 132240Z 18016KT 16/08 A3023 RMK A01 T01600078  RH  058%=      5-min Rain = 0
KBI1 132241Z 17014KT 16/08 A3023 RMK A01 T01590079  RH  059%=      5-min Rain = 0
KBI1 132242Z 17014KT 16/08 A3023 RMK A01 T01590079  RH  059%=      5-min Rain = 0
KBI1 132243Z 17012G17KT 16/08 A3023 RMK A01 T01590079  RH  059%=      5-min Rain = 0
KBI1 132244Z 17013KT 16/08 A3023 RMK A01 T01590079  RH  059%=      5-min Rain = 0
KBI1 132245Z 16016KT 16/08 A3023 RMK A01 T01590078  RH  059%=      5-min Rain = 0
KBI1 132246Z 17016KT 16/08 A3023 RMK A01 T01580078  RH  059%=      5-min Rain = 0
KBI1 132247Z 17015KT 16/08 A3023 RMK A01 T01560077  RH  059%=      5-min Rain = 0
KBI1 132248Z 17014KT 16/08 A3023 RMK A01 T01560078  RH  060%=      5-min Rain = 0
KBI1 132249Z 17014KT 16/08 A3023 RMK A01 T01560077  RH  060%=      5-min Rain = 0
KBI1 132250Z 17016KT 16/08 A3023 RMK A01 T01560077  RH  059%=      5-min Rain = 0
KBI1 132251Z 17016KT 16/08 A3023 RMK A01 T01560078  RH  060%=      5-min Rain = 0
KBI1 132252Z 17014KT 16/08 A3024 RMK A01 T01550078  RH  060%=      5-min Rain = 0
KBI1 132253Z 17015KT 16/08 A3024 RMK A01 T01550079  RH  060%=      5-min Rain = 0
KBI1 132254Z 17012KT 15/08 A3024 RMK A01 T01540078  RH  060%=      5-min Rain = 0
KBI1 132255Z 17013KT 16/08 A3024 RMK A01 T01550078  RH  060%=      5-min Rain = 0
KBI1 132256Z 17015KT 16/08 A3024 RMK A01 T01550078  RH  060%=      5-min Rain = 0
KBI1 132257Z 17015KT 15/08 A3024 RMK A01 T01540078  RH  061%=      5-min Rain = 0
KBI1 132258Z 17016KT 15/08 A3024 RMK A01 T01540079  RH  061%=      5-min Rain = 0
KBI1 132259Z 18017KT 15/08 A3024 RMK A01 T01530080  RH  062%=      5-min Rain = 0
KBI1 132300Z 18016KT 15/08 A3024 RMK A01 T01520081  RH  062%=      5-min Rain = 0
KBI1 132301Z 17013KT 15/08 A3024 RMK A01 T01520081  RH  063%=      5-min Rain = 0
KBI1 132302Z 17013KT 15/08 A3024 RMK A01 T01520082  RH  063%=      5-min Rain = 0
KBI1 132303Z 16012KT 15/08 A3024 RMK A01 T01530083  RH  063%=      5-min Rain = 0
KBI1 132304Z 16014KT 15/08 A3024 RMK A01 T01530083  RH  063%=      5-min Rain = 0
KBI1 132305Z 16015KT 15/08 A3024 RMK A01 T01520083  RH  063%=      5-min Rain = 0
KBI1 132306Z 16014KT 15/08 A3024 RMK A01 T01510083  RH  064%=      5-min Rain = 0
KBI1 132307Z 16011KT 15/08 A3024 RMK A01 T01510083  RH  064%=      5-min Rain = 0
KBI1 132308Z 17012KT 15/08 A3024 RMK A01 T01520083  RH  064%=      5-min Rain = 0
KBI1 132309Z 18016KT 15/08 A3024 RMK A01 T01520083  RH  063%=      5-min Rain = 0
KBI1 132310Z 18013KT 15/08 A3024 RMK A01 T01520082  RH  063%=      5-min Rain = 0
KBI1 132311Z 17014G19KT 15/08 A3024 RMK A01 T01520082  RH  063%=      5-min Rain = 0
KBI1 132312Z 17013KT 15/08 A3024 RMK A01 T01520081  RH  063%=      5-min Rain = 0
KBI1 132313Z 16013KT 15/08 A3024 RMK A01 T01510081  RH  063%=      5-min Rain = 0
KBI1 132314Z 17015KT 15/08 A3024 RMK A01 T01510081  RH  063%=      5-min Rain = 0
KBI1 132315Z 16013KT 15/08 A3024 RMK A01 T01500080  RH  063%=      5-min Rain = 0
KBI1 132316Z 17017KT 15/08 A3024 RMK A01 T01500080  RH  063%=      5-min Rain = 0
KBI1 132317Z 17016KT 15/08 A3024 RMK A01 T01490080  RH  063%=      5-min Rain = 0
KBI1 132318Z 17014KT 15/08 A3025 RMK A01 T01490080  RH  063%=      5-min Rain = 0
KBI1 132319Z 17015KT 15/08 A3025 RMK A01 T01480080  RH  063%=      5-min Rain = 0
KBI1 132320Z 17014KT 15/08 A3025 RMK A01 T01480080  RH  063%=      5-min Rain = 0
KBI1 132321Z 17015KT 15/08 A3025 RMK A01 T01480079  RH  063%=      5-min Rain = 0
KBI1 132322Z 17014KT 15/08 A3025 RMK A01 T01480079  RH  063%=      5-min Rain = 0
KBI1 132323Z 17012KT 15/08 A3025 RMK A01 T01480079  RH  063%=      5-min Rain = 0
KBI1 132324Z 17011G16KT 15/08 A3025 RMK A01 T01470079  RH  063%=      5-min Rain = 0
KBI1 132325Z 16014KT 15/08 A3024 RMK A01 T01470078  RH  063%=      5-min Rain = 0
KBI1 132326Z 17012KT 15/08 A3024 RMK A01 T01480078  RH  063%=      5-min Rain = 0
KBI1 132327Z 17011KT 15/08 A3024 RMK A01 T01480079  RH  063%=      5-min Rain = 0
KBI1 132328Z 17012KT 15/08 A3024 RMK A01 T01480078  RH  063%=      5-min Rain = 0
KBI1 132329Z 16013KT 15/08 A3024 RMK A01 T01480078  RH  063%=      5-min Rain = 0
KBI1 132330Z 16012KT 15/08 A3024 RMK A01 T01480078  RH  063%=      5-min Rain = 0
KBI1 132331Z 16013KT 15/08 A3024 RMK A01 T01480077  RH  063%=      5-min Rain = 0
KBI1 132332Z 17011KT 15/08 A3024 RMK A01 T01480078  RH  063%=      5-min Rain = 0
KBI1 132333Z 17013G19KT 15/08 A3024 RMK A01 T01490078  RH  063%=      5-min Rain = 0
KBI1 132334Z 17016KT 15/08 A3024 RMK A01 T01490077  RH  062%=      5-min Rain = 0
KBI1 132335Z 17015KT 15/08 A3024 RMK A01 T01490077  RH  062%=      5-min Rain = 0
KBI1 132336Z 17014KT 15/08 A3024 RMK A01 T01480077  RH  062%=      5-min Rain = 0
KBI1 132337Z 17015KT 15/08 A3024 RMK A01 T01490077  RH  062%=      5-min Rain = 0
KBI1 132338Z 17012KT 15/08 A3024 RMK A01 T01490077  RH  062%=      5-min Rain = 0
KBI1 132339Z 17011KT 15/08 A3024 RMK A01 T01500077  RH  062%=      5-min Rain = 0
KBI1 132340Z 17013KT 15/08 A3024 RMK A01 T01500077  RH  061%=      5-min Rain = 0
KBI1 132341Z 17013KT 15/08 A3024 RMK A01 T01510077  RH  061%=      5-min Rain = 0
KBI1 132342Z 18015KT 15/08 A3024 RMK A01 T01510077  RH  061%=      5-min Rain = 0
KBI1 132343Z 18016KT 15/08 A3024 RMK A01 T01500077  RH  061%=      5-min Rain = 0
KBI1 132344Z 18016KT 15/08 A3024 RMK A01 T01500076  RH  061%=      5-min Rain = 0
KBI1 132345Z 17016KT 15/08 A3024 RMK A01 T01490076  RH  061%=      5-min Rain = 0
KBI1 132346Z 18012KT 15/08 A3025 RMK A01 T01490076  RH  062%=      5-min Rain = 0
KBI1 132347Z 18013KT 15/08 A3025 RMK A01 T01480076  RH  062%=      5-min Rain = 0
KBI1 132348Z 18012KT 15/08 A3025 RMK A01 T01490077  RH  062%=      5-min Rain = 0
KBI1 132349Z 18013KT 15/08 A3025 RMK A01 T01480077  RH  062%=      5-min Rain = 0
KBI1 132350Z 18012KT 15/08 A3025 RMK A01 T01480076  RH  062%=      5-min Rain = 0
KBI1 132351Z 18013KT 15/08 A3025 RMK A01 T01480077  RH  062%=      5-min Rain = 0
KBI1 132352Z 19013KT 15/08 A3025 RMK A01 T01470076  RH  063%=      5-min Rain = 0
KBI1 132353Z 17013KT 15/08 A3025 RMK A01 T01470077  RH  063%=      5-min Rain = 0
KBI1 132354Z 18014KT 15/08 A3025 RMK A01 T01450076  RH  063%=      5-min Rain = 0
KBI1 132355Z 18014KT 15/08 A3025 RMK A01 T01450077  RH  064%=      5-min Rain = 0
KBI1 132356Z 18012KT 14/08 A3025 RMK A01 T01440077  RH  064%=      5-min Rain = 0
KBI1 132357Z 18010KT 14/08 A3025 RMK A01 T01440076  RH  064%=      5-min Rain = 0
KBI1 132358Z 18013KT 14/08 A3025 RMK A01 T01430076  RH  064%=      5-min Rain = 0
KBI1 132359Z 18011KT 14/08 A3025 RMK A01 T01430077  RH  064%=      5-min Rain = 0
KBI1 140000Z 18012KT 14/08 A3026 RMK A01 T01420076  RH  065%=      5-min Rain = 0
KBI1 140001Z 18011KT 14/08 A3026 RMK A01 T01420076  RH  065%=      5-min Rain = 0
KBI1 140002Z 17012KT 14/08 A3025 RMK A01 T01410076  RH  065%=      5-min Rain = 0
KBI1 140003Z 18010KT 14/08 A3025 RMK A01 T01410076  RH  065%=      5-min Rain = 0
KBI1 140004Z 18011KT 14/08 A3025 RMK A01 T01410076  RH  065%=      5-min Rain = 0
KBI1 140005Z 18010KT 14/08 A3026 RMK A01 T01400075  RH  065%=      5-min Rain = 0
KBI1 140006Z 18011KT 14/08 A3026 RMK A01 T01400075  RH  065%=      5-min Rain = 0
KBI1 140007Z 18011KT 14/08 A3026 RMK A01 T01400076  RH  065%=      5-min Rain = 0
KBI1 140008Z 17011KT 14/08 A3026 RMK A01 T01390075  RH  065%=      5-min Rain = 0
KBI1 140009Z 18010KT 14/08 A3026 RMK A01 T01390075  RH  065%=      5-min Rain = 0
KBI1 140010Z 18010KT 14/07 A3026 RMK A01 T01380074  RH  065%=      5-min Rain = 0
KBI1 140011Z 18012KT 14/08 A3026 RMK A01 T01380075  RH  066%=      5-min Rain = 0
KBI1 140012Z 18009KT 14/08 A3026 RMK A01 T01370076  RH  066%=      5-min Rain = 0
KBI1 140013Z 17009KT 14/08 A3026 RMK A01 T01370076  RH  066%=      5-min Rain = 0
KBI1 140014Z 17012KT 14/08 A3026 RMK A01 T01370077  RH  067%=      5-min Rain = 0
KBI1 140015Z 17012KT 14/08 A3026 RMK A01 T01370077  RH  067%=      5-min Rain = 0
KBI1 140016Z 16010KT 14/08 A3026 RMK A01 T01370077  RH  067%=      5-min Rain = 0
KBI1 140017Z 17009KT 14/08 A3026 RMK A01 T01370077  RH  067%=      5-min Rain = 0
KBI1 140018Z 18011KT 14/08 A3026 RMK A01 T01370077  RH  067%=      5-min Rain = 0
KBI1 140019Z 17011KT 14/08 A3026 RMK A01 T01370077  RH  067%=      5-min Rain = 0
KBI1 140020Z 17011KT 14/08 A3026 RMK A01 T01370077  RH  067%=      5-min Rain = 0
KBI1 140021Z 18011KT 14/08 A3026 RMK A01 T01370077  RH  067%=      5-min Rain = 0
KBI1 140022Z 17011KT 14/08 A3026 RMK A01 T01360076  RH  067%=      5-min Rain = 0
KBI1 140023Z 18010KT 14/08 A3026 RMK A01 T01360077  RH  067%=      5-min Rain = 0
KBI1 140024Z 18010KT 14/08 A3026 RMK A01 T01360076  RH  067%=      5-min Rain = 0
KBI1 140025Z 18011KT 14/08 A3026 RMK A01 T01360076  RH  067%=      5-min Rain = 0
KBI1 140026Z 18010KT 14/08 A3026 RMK A01 T01350076  RH  067%=      5-min Rain = 0
KBI1 140027Z 18010KT 14/08 A3026 RMK A01 T01350076  RH  068%=      5-min Rain = 0
KBI1 140028Z 18010KT 14/08 A3026 RMK A01 T01350076  RH  068%=      5-min Rain = 0
KBI1 140029Z 18010KT 13/08 A3026 RMK A01 T01340076  RH  068%=      5-min Rain = 0
KBI1 140030Z 18011KT 13/08 A3026 RMK A01 T01340076  RH  068%=      5-min Rain = 0
KBI1 140031Z 17012KT 13/08 A3025 RMK A01 T01340076  RH  068%=      5-min Rain = 0
KBI1 140032Z 17011KT 13/08 A3025 RMK A01 T01340077  RH  068%=      5-min Rain = 0
KBI1 140033Z 17011KT 13/08 A3025 RMK A01 T01340076  RH  068%=      5-min Rain = 0
KBI1 140034Z 17013KT 13/08 A3025 RMK A01 T01340077  RH  068%=      5-min Rain = 0
KBI1 140035Z 17013KT 13/08 A3025 RMK A01 T01340077  RH  069%=      5-min Rain = 0
KBI1 140036Z 18013KT 13/08 A3025 RMK A01 T01340077  RH  069%=      5-min Rain = 0
KBI1 140037Z 17012KT 13/08 A3025 RMK A01 T01340077  RH  069%=      5-min Rain = 0
KBI1 140038Z 17012KT 13/08 A3025 RMK A01 T01330077  RH  069%=      5-min Rain = 0
KBI1 140039Z 17012KT 13/08 A3025 RMK A01 T01330077  RH  069%=      5-min Rain = 0
KBI1 140040Z 18010KT 13/08 A3025 RMK A01 T01330077  RH  069%=      5-min Rain = 0
KBI1 140041Z 17011KT 13/08 A3025 RMK A01 T01320076  RH  069%=      5-min Rain = 0
KBI1 140042Z 17010KT 13/08 A3025 RMK A01 T01320077  RH  069%=      5-min Rain = 0
KBI1 140043Z 17011KT 13/08 A3025 RMK A01 T01310077  RH  069%=      5-min Rain = 0
KBI1 140044Z 17010KT 13/08 A3025 RMK A01 T01310076  RH  069%=      5-min Rain = 0
KBI1 140045Z 18010KT 13/08 A3025 RMK A01 T01310076  RH  069%=      5-min Rain = 0
KBI1 140046Z 18010KT 13/08 A3025 RMK A01 T01310077  RH  070%=      5-min Rain = 0
KBI1 140047Z 18009KT 13/08 A3025 RMK A01 T01300076  RH  070%=      5-min Rain = 0
KBI1 140048Z 18010KT 13/08 A3025 RMK A01 T01300076  RH  070%=      5-min Rain = 0
KBI1 140049Z 18008KT 13/08 A3025 RMK A01 T01300077  RH  070%=      5-min Rain = 0
KBI1 140050Z 17008KT 13/08 A3025 RMK A01 T01290076  RH  070%=      5-min Rain = 0
KBI1 140051Z 17008KT 13/08 A3025 RMK A01 T01280075  RH  070%=      5-min Rain = 0
KBI1 140052Z 17009KT 13/08 A3025 RMK A01 T01280075  RH  070%=      5-min Rain = 0
KBI1 140053Z 17008KT 13/08 A3025 RMK A01 T01280075  RH  070%=      5-min Rain = 0
KBI1 140054Z 17007KT 13/08 A3025 RMK A01 T01270075  RH  070%=      5-min Rain = 0
KBI1 140055Z 17007KT 13/08 A3025 RMK A01 T01270075  RH  071%=      5-min Rain = 0
KBI1 140056Z 17007KT 13/08 A3025 RMK A01 T01260075  RH  071%=      5-min Rain = 0
KBI1 140057Z 17008KT 13/08 A3025 RMK A01 T01260075  RH  071%=      5-min Rain = 0
KBI1 140058Z 17007KT 13/08 A3025 RMK A01 T01260075  RH  071%=      5-min Rain = 0
KBI1 140059Z 17008KT 13/08 A3025 RMK A01 T01260076  RH  071%=      5-min Rain = 0
KBI1 140100Z 17007KT 13/08 A3025 RMK A01 T01260076  RH  071%=      5-min Rain = 0
KBI1 140101Z 17007KT 13/08 A3025 RMK A01 T01260076  RH  071%=      5-min Rain = 0
KBI1 140102Z 17007KT 13/08 A3025 RMK A01 T01260075  RH  071%=      5-min Rain = 0
KBI1 140103Z 17006KT 13/07 A3025 RMK A01 T01250074  RH  071%=      5-min Rain = 0
KBI1 140104Z 17006KT 13/07 A3026 RMK A01 T01250074  RH  071%=      5-min Rain = 0
KBI1 140105Z 18006KT 12/07 A3026 RMK A01 T01240074  RH  072%=      5-min Rain = 0
KBI1 140106Z 18006KT 12/07 A3026 RMK A01 T01230074  RH  072%=      5-min Rain = 0
KBI1 140107Z 18006KT 12/07 A3026 RMK A01 T01230074  RH  072%=      5-min Rain = 0
KBI1 140108Z 18006KT 12/07 A3026 RMK A01 T01230074  RH  072%=      5-min Rain = 0
KBI1 140109Z 18006KT 12/07 A3026 RMK A01 T01230073  RH  072%=      5-min Rain = 0
KBI1 140110Z 18006KT 12/07 A3026 RMK A01 T01230074  RH  072%=      5-min Rain = 0
KBI1 140111Z 18006KT 12/07 A3026 RMK A01 T01220073  RH  072%=      5-min Rain = 0
KBI1 140112Z 18007KT 12/07 A3026 RMK A01 T01220073  RH  072%=      5-min Rain = 0
KBI1 140113Z 17007KT 12/07 A3026 RMK A01 T01210073  RH  072%=      5-min Rain = 0
KBI1 140114Z 17007KT 12/07 A3026 RMK A01 T01210073  RH  072%=      5-min Rain = 0
KBI1 140115Z 17007KT 12/07 A3026 RMK A01 T01210073  RH  073%=      5-min Rain = 0
KBI1 140116Z 17007KT 12/07 A3026 RMK A01 T01210073  RH  072%=      5-min Rain = 0
KBI1 140117Z 17007KT 12/07 A3026 RMK A01 T01210073  RH  073%=      5-min Rain = 0
KBI1 140118Z 18007KT 12/07 A3026 RMK A01 T01200073  RH  073%=      5-min Rain = 0
KBI1 140119Z 18008KT 12/07 A3026 RMK A01 T01200073  RH  073%=      5-min Rain = 0
KBI1 140120Z 17008KT 12/07 A3026 RMK A01 T01200073  RH  073%=      5-min Rain = 0
KBI1 140121Z 17008KT 12/07 A3026 RMK A01 T01200073  RH  073%=      5-min Rain = 0
KBI1 140122Z 17008KT 12/07 A3026 RMK A01 T01200073  RH  073%=      5-min Rain = 0
KBI1 140123Z 17009KT 12/07 A3026 RMK A01 T01190073  RH  073%=      5-min Rain = 0
KBI1 140124Z 17008KT 12/07 A3026 RMK A01 T01190073  RH  073%=      5-min Rain = 0
KBI1 140125Z 17008KT 12/07 A3026 RMK A01 T01190073  RH  073%=      5-min Rain = 0
KBI1 140126Z 17008KT 12/07 A3026 RMK A01 T01190073  RH  073%=      5-min Rain = 0
KBI1 140127Z 17009KT 12/07 A3026 RMK A01 T01190073  RH  073%=      5-min Rain = 0
KBI1 140128Z 17009KT 12/07 A3026 RMK A01 T01190073  RH  074%=      5-min Rain = 0
KBI1 140129Z 17009KT 12/07 A3026 RMK A01 T01190073  RH  074%=      5-min Rain = 0
KBI1 140130Z 18009KT 12/07 A3026 RMK A01 T01180073  RH  074%=      5-min Rain = 0
KBI1 140131Z 18009KT 12/07 A3026 RMK A01 T01180073  RH  074%=      5-min Rain = 0
KBI1 140132Z 18009KT 12/07 A3026 RMK A01 T01180073  RH  074%=      5-min Rain = 0
KBI1 140133Z 18009KT 12/07 A3026 RMK A01 T01170072  RH  074%=      5-min Rain = 0
KBI1 140134Z 18009KT 12/07 A3026 RMK A01 T01170072  RH  074%=      5-min Rain = 0
KBI1 140135Z 18009KT 12/07 A3026 RMK A01 T01170072  RH  074%=      5-min Rain = 0
KBI1 140136Z 18008KT 12/07 A3026 RMK A01 T01170072  RH  074%=      5-min Rain = 0
KBI1 140137Z 18009KT 12/07 A3026 RMK A01 T01160072  RH  074%=      5-min Rain = 0
KBI1 140138Z 18010KT 12/07 A3026 RMK A01 T01160072  RH  074%=      5-min Rain = 0
KBI1 140139Z 18010KT 12/07 A3027 RMK A01 T01160072  RH  074%=      5-min Rain = 0
KBI1 140140Z 18011KT 12/07 A3027 RMK A01 T01160072  RH  074%=      5-min Rain = 0
KBI1 140141Z 18010KT 12/07 A3027 RMK A01 T01160072  RH  074%=      5-min Rain = 0
KBI1 140142Z 18010KT 12/07 A3027 RMK A01 T01160072  RH  074%=      5-min Rain = 0
KBI1 140143Z 18011KT 12/07 A3027 RMK A01 T01160072  RH  074%=      5-min Rain = 0
KBI1 140144Z 18010KT 12/07 A3027 RMK A01 T01160072  RH  074%=      5-min Rain = 0
KBI1 140145Z 18011KT 12/07 A3027 RMK A01 T01160072  RH  074%=      5-min Rain = 0
KBI1 140146Z 18011KT 12/07 A3026 RMK A01 T01160072  RH  074%=      5-min Rain = 0
KBI1 140147Z 18011KT 12/07 A3027 RMK A01 T01160072  RH  074%=      5-min Rain = 0
KBI1 140148Z 18011KT 12/07 A3027 RMK A01 T01160072  RH  074%=      5-min Rain = 0
KBI1 140149Z 18012KT 12/07 A3027 RMK A01 T01160072  RH  074%=      5-min Rain = 0
KBI1 140150Z 18012KT 12/07 A3027 RMK A01 T01160072  RH  074%=      5-min Rain = 0
KBI1 140151Z 18012KT 12/07 A3027 RMK A01 T01160072  RH  074%=      5-min Rain = 0
KBI1 140152Z 18011KT 12/07 A3027 RMK A01 T01160072  RH  074%=      5-min Rain = 0
KBI1 140153Z 18012KT 12/07 A3027 RMK A01 T01160072  RH  074%=      5-min Rain = 0
KBI1 140154Z 18011KT 12/07 A3027 RMK A01 T01160072  RH  074%=      5-min Rain = 0
KBI1 140155Z 18012KT 12/07 A3027 RMK A01 T01150072  RH  075%=      5-min Rain = 0
KBI1 140156Z 18013KT 12/07 A3027 RMK A01 T01150072  RH  075%=      5-min Rain = 0
KBI1 140157Z 18012KT 12/07 A3027 RMK A01 T01150072  RH  075%=      5-min Rain = 0
KBI1 140158Z 18012KT 12/07 A3027 RMK A01 T01160072  RH  075%=      5-min Rain = 0
KBI1 140159Z 18012KT 12/07 A3027 RMK A01 T01150072  RH  075%=      5-min Rain = 0
KBI1 140200Z 18012KT 12/07 A3027 RMK A01 T01150073  RH  075%=      5-min Rain = 0
KBI1 140201Z 18012KT 12/07 A3027 RMK A01 T01150073  RH  075%=      5-min Rain = 0
KBI1 140202Z 18013KT 12/07 A3026 RMK A01 T01150073  RH  075%=      5-min Rain = 0
KBI1 140203Z 18014KT 12/07 A3026 RMK A01 T01160073  RH  075%=      5-min Rain = 0
KBI1 140204Z 18012KT 12/07 A3026 RMK A01 T01160073  RH  075%=      5-min Rain = 0
KBI1 140205Z 18013KT 12/07 A3026 RMK A01 T01160073  RH  075%=      5-min Rain = 0
KBI1 140206Z 18014KT 12/07 A3027 RMK A01 T01160073  RH  075%=      5-min Rain = 0
KBI1 140207Z 18013KT 12/07 A3027 RMK A01 T01170074  RH  075%=      5-min Rain = 0
KBI1 140208Z 18013KT 12/07 A3027 RMK A01 T01170074  RH  075%=      5-min Rain = 0
KBI1 140209Z 18012KT 12/07 A3027 RMK A01 T01170074  RH  075%=      5-min Rain = 0
KBI1 140210Z 18012KT 12/07 A3027 RMK A01 T01170074  RH  075%=      5-min Rain = 0
KBI1 140211Z 18011KT 12/07 A3027 RMK A01 T01170074  RH  075%=      5-min Rain = 0
KBI1 140212Z 18011KT 12/07 A3027 RMK A01 T01170074  RH  075%=      5-min Rain = 0
KBI1 140213Z 18011KT 12/07 A3027 RMK A01 T01170074  RH  075%=      5-min Rain = 0
KBI1 140214Z 18011KT 12/07 A3027 RMK A01 T01160074  RH  075%=      5-min Rain = 0
KBI1 140215Z 18012KT 12/07 A3027 RMK A01 T01160074  RH  075%=      5-min Rain = 0
KBI1 140216Z 18012KT 12/07 A3027 RMK A01 T01160074  RH  075%=      5-min Rain = 0
KBI1 140217Z 18013KT 12/07 A3027 RMK A01 T01160074  RH  075%=      5-min Rain = 0
KBI1 140218Z 18012KT 12/07 A3027 RMK A01 T01160074  RH  075%=      5-min Rain = 0
KBI1 140219Z 18011KT 12/07 A3027 RMK A01 T01160074  RH  075%=      5-min Rain = 0
KBI1 140220Z 18011KT 12/07 A3027 RMK A01 T01160074  RH  075%=      5-min Rain = 0
KBI1 140221Z 18012KT 12/07 A3027 RMK A01 T01160074  RH  075%=      5-min Rain = 0
KBI1 140222Z 18012KT 12/07 A3027 RMK A01 T01160074  RH  076%=      5-min Rain = 0
KBI1 140223Z 18011KT 12/08 A3027 RMK A01 T01160075  RH  076%=      5-min Rain = 0
KBI1 140224Z 18011KT 12/07 A3027 RMK A01 T01160074  RH  076%=      5-min Rain = 0
KBI1 140225Z 17011KT 12/07 A3027 RMK A01 T01160074  RH  075%=      5-min Rain = 0
KBI1 140226Z 18011KT 12/07 A3027 RMK A01 T01160074  RH  076%=      5-min Rain = 0
KBI1 140227Z 18011KT 12/07 A3027 RMK A01 T01160074  RH  076%=      5-min Rain = 0
KBI1 140228Z 18011KT 12/07 A3027 RMK A01 T01160074  RH  076%=      5-min Rain = 0
KBI1 140229Z 18010KT 12/07 A3027 RMK A01 T01160074  RH  076%=      5-min Rain = 0
KBI1 140230Z 18011KT 12/07 A3027 RMK A01 T01150074  RH  076%=      5-min Rain = 0
KBI1 140231Z 18010KT 12/08 A3027 RMK A01 T01150075  RH  076%=      5-min Rain = 0
KBI1 140232Z 18010KT 12/07 A3027 RMK A01 T01150074  RH  076%=      5-min Rain = 0
KBI1 140233Z 18009KT 12/07 A3027 RMK A01 T01150074  RH  076%=      5-min Rain = 0
KBI1 140234Z 18009KT 12/07 A3027 RMK A01 T01160074  RH  076%=      5-min Rain = 0
KBI1 140235Z 18010KT 12/08 A3027 RMK A01 T01160075  RH  076%=      5-min Rain = 0
KBI1 140236Z 18009KT 12/08 A3027 RMK A01 T01160075  RH  076%=      5-min Rain = 0
KBI1 140237Z 18008KT 12/08 A3027 RMK A01 T01160075  RH  076%=      5-min Rain = 0
KBI1 140238Z 18009KT 12/08 A3027 RMK A01 T01160075  RH  076%=      5-min Rain = 0
KBI1 140239Z 18009KT 12/08 A3027 RMK A01 T01160075  RH  076%=      5-min Rain = 0
KBI1 140240Z 19009KT 12/07 A3027 RMK A01 T01150074  RH  076%=      5-min Rain = 0
KBI1 140241Z 19009KT 12/08 A3027 RMK A01 T01150075  RH  076%=      5-min Rain = 0
KBI1 140242Z 19009KT 12/08 A3027 RMK A01 T01150075  RH  076%=      5-min Rain = 0
KBI1 140243Z 18009KT 12/08 A3027 RMK A01 T01150075  RH  076%=      5-min Rain = 0
KBI1 140244Z 19007KT 12/08 A3027 RMK A01 T01150075  RH  076%=      5-min Rain = 0
KBI1 140245Z 18009KT 12/08 A3027 RMK A01 T01150075  RH  076%=      5-min Rain = 0
KBI1 140246Z 18010KT 12/08 A3027 RMK A01 T01150075  RH  076%=      5-min Rain = 0
KBI1 140247Z 18009KT 12/08 A3027 RMK A01 T01160075  RH  076%=      5-min Rain = 0
KBI1 140248Z 18008KT 12/08 A3027 RMK A01 T01160075  RH  076%=      5-min Rain = 0
KBI1 140249Z 18008KT 12/08 A3027 RMK A01 T01160075  RH  076%=      5-min Rain = 0
KBI1 140250Z 18008KT 12/08 A3027 RMK A01 T01160075  RH  076%=      5-min Rain = 0
KBI1 140251Z 18008KT 12/08 A3027 RMK A01 T01150075  RH  076%=      5-min Rain = 0
KBI1 140252Z 18008KT 12/08 A3027 RMK A01 T01150075  RH  076%=      5-min Rain = 0
KBI1 140253Z 18008KT 12/08 A3027 RMK A01 T01150075  RH  076%=      5-min Rain = 0
KBI1 140254Z 17009KT 12/08 A3027 RMK A01 T01150075  RH  076%=      5-min Rain = 0
KBI1 140255Z 18009KT 12/08 A3027 RMK A01 T01150075  RH  076%=      5-min Rain = 0
KBI1 140256Z 18009KT 12/08 A3027 RMK A01 T01150075  RH  076%=      5-min Rain = 0
KBI1 140257Z 17010KT 12/08 A3027 RMK A01 T01150075  RH  076%=      5-min Rain = 0
KBI1 140258Z 18008KT 12/08 A3027 RMK A01 T01160075  RH  076%=      5-min Rain = 0
KBI1 140259Z 18009KT 12/08 A3027 RMK A01 T01160075  RH  076%=      5-min Rain = 0
KBI1 140300Z 18008KT 12/08 A3027 RMK A01 T01160075  RH  076%=      5-min Rain = 0
KBI1 140301Z 17009KT 12/08 A3027 RMK A01 T01160075  RH  076%=      5-min Rain = 0
KBI1 140302Z 18008KT 12/08 A3027 RMK A01 T01160075  RH  076%=      5-min Rain = 0
KBI1 140303Z 18008KT 12/08 A3027 RMK A01 T01160075  RH  076%=      5-min Rain = 0
KBI1 140304Z 18009KT 12/08 A3027 RMK A01 T01150075  RH  076%=      5-min Rain = 0
KBI1 140305Z 17009KT 12/08 A3027 RMK A01 T01150075  RH  076%=      5-min Rain = 0
KBI1 140306Z 18009KT 12/08 A3027 RMK A01 T01150075  RH  076%=      5-min Rain = 0
KBI1 140307Z 18009KT 12/08 A3027 RMK A01 T01150075  RH  076%=      5-min Rain = 0
KBI1 140308Z 17007KT 12/08 A3027 RMK A01 T01160075  RH  076%=      5-min Rain = 0
KBI1 140309Z 18008KT 12/08 A3027 RMK A01 T01160075  RH  076%=      5-min Rain = 0
KBI1 140310Z 18007KT 12/08 A3027 RMK A01 T01160075  RH  076%=      5-min Rain = 0
KBI1 140311Z 18007KT 12/08 A3027 RMK A01 T01160075  RH  076%=      5-min Rain = 0
KBI1 140312Z 18007KT 12/08 A3027 RMK A01 T01150075  RH  076%=      5-min Rain = 0
KBI1 140313Z 17007KT 12/08 A3027 RMK A01 T01150075  RH  076%=      5-min Rain = 0
KBI1 140314Z 18006KT 12/08 A3027 RMK A01 T01150075  RH  076%=      5-min Rain = 0
KBI1 140315Z 18006KT 12/08 A3027 RMK A01 T01150075  RH  076%=      5-min Rain = 0
KBI1 140316Z 17006KT 12/08 A3027 RMK A01 T01150075  RH  076%=      5-min Rain = 0
KBI1 140317Z 18007KT 12/08 A3027 RMK A01 T01150076  RH  077%=      5-min Rain = 0
KBI1 140318Z 18008KT 12/08 A3027 RMK A01 T01160076  RH  077%=      5-min Rain = 0
KBI1 140319Z 18008KT 12/08 A3027 RMK A01 T01150075  RH  076%=      5-min Rain = 0
KBI1 140320Z 18008KT 12/08 A3027 RMK A01 T01150075  RH  076%=      5-min Rain = 0
KBI1 140321Z 17007KT 12/08 A3028 RMK A01 T01150075  RH  076%=      5-min Rain = 0
KBI1 140322Z 18006KT 12/08 A3028 RMK A01 T01150075  RH  076%=      5-min Rain = 0
KBI1 140323Z 18006KT 12/08 A3028 RMK A01 T01150075  RH  076%=      5-min Rain = 0
KBI1 140324Z 18007KT 12/08 A3028 RMK A01 T01150075  RH  076%=      5-min Rain = 0
KBI1 140325Z 18006KT 12/08 A3028 RMK A01 T01150075  RH  076%=      5-min Rain = 0
KBI1 140326Z 18006KT 12/08 A3028 RMK A01 T01150075  RH  076%=      5-min Rain = 0
KBI1 140327Z 18007KT 12/08 A3028 RMK A01 T01150075  RH  076%=      5-min Rain = 0
KBI1 140328Z 18008KT 12/08 A3028 RMK A01 T01150075  RH  077%=      5-min Rain = 0
KBI1 140329Z 18006KT 12/08 A3028 RMK A01 T01150075  RH  076%=      5-min Rain = 0
KBI1 140330Z 18007KT 12/08 A3028 RMK A01 T01150075  RH  076%=      5-min Rain = 0
KBI1 140331Z 17007KT 12/08 A3028 RMK A01 T01160076  RH  076%=      5-min Rain = 0
KBI1 140332Z 18006KT 12/08 A3028 RMK A01 T01160075  RH  076%=      5-min Rain = 0
KBI1 140333Z 18007KT 12/08 A3028 RMK A01 T01150075  RH  076%=      5-min Rain = 0
KBI1 140334Z 17007KT 12/08 A3028 RMK A01 T01150075  RH  077%=      5-min Rain = 0
KBI1 140335Z 17007KT 12/08 A3027 RMK A01 T01150075  RH  077%=      5-min Rain = 0
KBI1 140336Z 17008KT 11/08 A3027 RMK A01 T01140075  RH  077%=      5-min Rain = 0
KBI1 140337Z 17008KT 11/08 A3028 RMK A01 T01140075  RH  077%=      5-min Rain = 0
KBI1 140338Z 17007KT 12/08 A3028 RMK A01 T01150075  RH  077%=      5-min Rain = 0
KBI1 140339Z 17007KT 12/08 A3028 RMK A01 T01150075  RH  077%=      5-min Rain = 0
KBI1 140340Z 17007KT 11/08 A3028 RMK A01 T01140075  RH  077%=      5-min Rain = 0
KBI1 140341Z 17008KT 11/08 A3028 RMK A01 T01140075  RH  077%=      5-min Rain = 0
KBI1 140342Z 17007KT 11/08 A3028 RMK A01 T01140075  RH  077%=      5-min Rain = 0
KBI1 140343Z 16008KT 11/08 A3028 RMK A01 T01130075  RH  077%=      5-min Rain = 0
KBI1 140344Z 16007KT 11/08 A3028 RMK A01 T01140075  RH  077%=      5-min Rain = 0
KBI1 140345Z 16007KT 11/08 A3028 RMK A01 T01140075  RH  077%=      5-min Rain = 0
KBI1 140346Z 17007KT 11/08 A3028 RMK A01 T01130075  RH  077%=      5-min Rain = 0
KBI1 140347Z 17006KT 11/07 A3028 RMK A01 T01130074  RH  077%=      5-min Rain = 0
KBI1 140348Z 17006KT 11/07 A3028 RMK A01 T01130074  RH  077%=      5-min Rain = 0
KBI1 140349Z 17007KT 11/08 A3028 RMK A01 T01130075  RH  077%=      5-min Rain = 0
KBI1 140350Z 17006KT 11/08 A3028 RMK A01 T01130075  RH  077%=      5-min Rain = 0
KBI1 140351Z 16005KT 11/08 A3028 RMK A01 T01130075  RH  077%=      5-min Rain = 0
KBI1 140352Z 16005KT 11/08 A3028 RMK A01 T01130075  RH  077%=      5-min Rain = 0
KBI1 140353Z 16006KT 11/07 A3028 RMK A01 T01120074  RH  077%=      5-min Rain = 0
KBI1 140354Z 17007KT 11/08 A3028 RMK A01 T01130075  RH  077%=      5-min Rain = 0
KBI1 140355Z 16006KT 11/08 A3028 RMK A01 T01130075  RH  077%=      5-min Rain = 0
KBI1 140356Z 16007KT 11/07 A3028 RMK A01 T01120074  RH  077%=      5-min Rain = 0
KBI1 140357Z 16007KT 11/07 A3028 RMK A01 T01120074  RH  077%=      5-min Rain = 0
KBI1 140358Z 16006KT 11/08 A3028 RMK A01 T01130075  RH  077%=      5-min Rain = 0
KBI1 140359Z 15005KT 11/07 A3028 RMK A01 T01130074  RH  077%=      5-min Rain = 0
KBI1 140400Z 16006KT 11/07 A3028 RMK A01 T01120074  RH  077%=      5-min Rain = 0
KBI1 140401Z 15006KT 11/07 A3028 RMK A01 T01120074  RH  078%=      5-min Rain = 0
KBI1 140402Z 17006KT 11/07 A3028 RMK A01 T01120074  RH  078%=      5-min Rain = 0
KBI1 140403Z 17007KT 11/07 A3028 RMK A01 T01120074  RH  078%=      5-min Rain = 0
KBI1 140404Z 16008KT 11/07 A3029 RMK A01 T01110074  RH  078%=      5-min Rain = 0
KBI1 140405Z 17008KT 11/07 A3029 RMK A01 T01110074  RH  078%=      5-min Rain = 0
KBI1 140406Z 17008KT 11/07 A3029 RMK A01 T01110074  RH  078%=      5-min Rain = 0
KBI1 140407Z 17008KT 11/07 A3029 RMK A01 T01110074  RH  078%=      5-min Rain = 0
KBI1 140408Z 17010KT 11/07 A3028 RMK A01 T01100074  RH  078%=      5-min Rain = 0
KBI1 140409Z 16009KT 11/07 A3028 RMK A01 T01100074  RH  078%=      5-min Rain = 0
KBI1 140410Z 17009KT 11/07 A3029 RMK A01 T01100074  RH  078%=      5-min Rain = 0
KBI1 140411Z 17009KT 11/07 A3029 RMK A01 T01100073  RH  078%=      5-min Rain = 0
KBI1 140412Z 17009KT 11/07 A3029 RMK A01 T01090073  RH  079%=      5-min Rain = 0
KBI1 140413Z 17010KT 11/07 A3028 RMK A01 T01090074  RH  079%=      5-min Rain = 0
KBI1 140414Z 17010KT 11/07 A3028 RMK A01 T01100074  RH  079%=      5-min Rain = 0
KBI1 140415Z 17009KT 11/07 A3028 RMK A01 T01090074  RH  079%=      5-min Rain = 0
KBI1 140416Z 17009KT 11/07 A3028 RMK A01 T01090074  RH  079%=      5-min Rain = 0
KBI1 140417Z 17009KT 11/07 A3028 RMK A01 T01090074  RH  079%=      5-min Rain = 0
KBI1 140418Z 17009KT 11/07 A3028 RMK A01 T01090073  RH  079%=      5-min Rain = 0
KBI1 140419Z 16008KT 11/07 A3028 RMK A01 T01090074  RH  079%=      5-min Rain = 0
KBI1 140420Z 17010KT 11/07 A3028 RMK A01 T01090074  RH  079%=      5-min Rain = 0
KBI1 140421Z 17009KT 11/07 A3028 RMK A01 T01090074  RH  079%=      5-min Rain = 0
KBI1 140422Z 16008KT 11/07 A3028 RMK A01 T01090074  RH  079%=      5-min Rain = 0
KBI1 140423Z 17009KT 11/07 A3028 RMK A01 T01090074  RH  079%=      5-min Rain = 0
KBI1 140424Z 16009KT 11/07 A3028 RMK A01 T01090073  RH  079%=      5-min Rain = 0
KBI1 140425Z 17009KT 11/07 A3028 RMK A01 T01090074  RH  079%=      5-min Rain = 0
KBI1 140426Z 16010KT 11/07 A3028 RMK A01 T01090074  RH  079%=      5-min Rain = 0
KBI1 140427Z 17010KT 11/07 A3028 RMK A01 T01080073  RH  079%=      5-min Rain = 0
KBI1 140428Z 17009KT 11/07 A3028 RMK A01 T01080073  RH  079%=      5-min Rain = 0
KBI1 140429Z 17008KT 11/07 A3028 RMK A01 T01080073  RH  079%=      5-min Rain = 0
KBI1 140430Z 17009KT 11/07 A3028 RMK A01 T01080073  RH  079%=      5-min Rain = 0
KBI1 140431Z 17009KT 11/07 A3028 RMK A01 T01080074  RH  079%=      5-min Rain = 0
KBI1 140432Z 17009KT 11/07 A3028 RMK A01 T01080073  RH  079%=      5-min Rain = 0
KBI1 140433Z 17009KT 11/07 A3028 RMK A01 T01090074  RH  079%=      5-min Rain = 0
KBI1 140434Z 17010KT 11/07 A3028 RMK A01 T01090073  RH  079%=      5-min Rain = 0
KBI1 140435Z 17009KT 11/07 A3028 RMK A01 T01080073  RH  079%=      5-min Rain = 0
KBI1 140436Z 17011KT 11/07 A3028 RMK A01 T01080073  RH  079%=      5-min Rain = 0
KBI1 140437Z 17010KT 11/07 A3028 RMK A01 T01080073  RH  079%=      5-min Rain = 0
KBI1 140438Z 18010KT 11/07 A3028 RMK A01 T01080073  RH  079%=      5-min Rain = 0
KBI1 140439Z 17011KT 11/07 A3028 RMK A01 T01090073  RH  078%=      5-min Rain = 0
KBI1 140440Z 17011KT 11/07 A3028 RMK A01 T01090073  RH  078%=      5-min Rain = 0
KBI1 140441Z 18011KT 11/07 A3028 RMK A01 T01090072  RH  078%=      5-min Rain = 0
KBI1 140442Z 17010KT 11/07 A3028 RMK A01 T01080072  RH  078%=      5-min Rain = 0
KBI1 140443Z 17010KT 11/07 A3028 RMK A01 T01080072  RH  078%=      5-min Rain = 0
KBI1 140444Z 18012KT 11/07 A3028 RMK A01 T01080071  RH  078%=      5-min Rain = 0
KBI1 140445Z 17012KT 11/07 A3028 RMK A01 T01080072  RH  078%=      5-min Rain = 0
KBI1 140446Z 17012KT 11/07 A3028 RMK A01 T01080071  RH  078%=      5-min Rain = 0
KBI1 140447Z 17011KT 11/07 A3027 RMK A01 T01080071  RH  078%=      5-min Rain = 0
KBI1 140448Z 17013KT 11/07 A3027 RMK A01 T01080072  RH  078%=      5-min Rain = 0
KBI1 140449Z 17011KT 11/07 A3027 RMK A01 T01080071  RH  078%=      5-min Rain = 0
KBI1 140450Z 17011KT 11/07 A3027 RMK A01 T01070071  RH  078%=      5-min Rain = 0
KBI1 140451Z 17013KT 11/07 A3027 RMK A01 T01070071  RH  078%=      5-min Rain = 0
KBI1 140452Z 17012KT 11/07 A3027 RMK A01 T01070071  RH  078%=      5-min Rain = 0
KBI1 140453Z 17011KT 11/07 A3027 RMK A01 T01070071  RH  078%=      5-min Rain = 0
KBI1 140454Z 17013KT 11/07 A3027 RMK A01 T01070071  RH  079%=      5-min Rain = 0
KBI1 140455Z 17013KT 11/07 A3027 RMK A01 T01070071  RH  079%=      5-min Rain = 0
KBI1 140456Z 17011KT 11/07 A3028 RMK A01 T01070071  RH  079%=      5-min Rain = 0
KBI1 140457Z 17011KT 11/07 A3028 RMK A01 T01060071  RH  079%=      5-min Rain = 0
KBI1 140458Z 18011KT 11/07 A3028 RMK A01 T01060071  RH  079%=      5-min Rain = 0
KBI1 140459Z 18011KT 11/07 A3028 RMK A01 T01060071  RH  079%=      5-min Rain = 0
KBI1 140500Z 18011KT 11/07 A3028 RMK A01 T01050070  RH  079%=      5-min Rain = 0
KBI1 140501Z 18010KT 11/07 A3028 RMK A01 T01050070  RH  079%=      5-min Rain = 0
KBI1 140502Z 17011KT 11/07 A3028 RMK A01 T01050070  RH  079%=      5-min Rain = 0
KBI1 140503Z 18011KT 11/07 A3028 RMK A01 T01050070  RH  079%=      5-min Rain = 0
KBI1 140504Z 17010KT 11/07 A3028 RMK A01 T01050070  RH  079%=      5-min Rain = 0
KBI1 140505Z 17009KT 11/07 A3028 RMK A01 T01050070  RH  079%=      5-min Rain = 0
KBI1 140506Z 17011KT 10/07 A3027 RMK A01 T01040070  RH  079%=      5-min Rain = 0
KBI1 140507Z 17011KT 10/07 A3028 RMK A01 T01040070  RH  079%=      5-min Rain = 0
KBI1 140508Z 17012KT 10/07 A3028 RMK A01 T01040069  RH  079%=      5-min Rain = 0
KBI1 140509Z 17013KT 10/07 A3028 RMK A01 T01040069  RH  079%=      5-min Rain = 0
KBI1 140510Z 18011KT 10/07 A3028 RMK A01 T01040069  RH  079%=      5-min Rain = 0
KBI1 140511Z 18011KT 10/07 A3028 RMK A01 T01040069  RH  079%=      5-min Rain = 0
KBI1 140512Z 18011KT 10/07 A3028 RMK A01 T01040070  RH  079%=      5-min Rain = 0
KBI1 140513Z 18008KT 10/07 A3028 RMK A01 T01040069  RH  079%=      5-min Rain = 0
KBI1 140514Z 17009KT 10/07 A3028 RMK A01 T01030069  RH  079%=      5-min Rain = 0
KBI1 140515Z 17009KT 10/07 A3028 RMK A01 T01030069  RH  080%=      5-min Rain = 0
KBI1 140516Z 17009KT 10/07 A3028 RMK A01 T01030069  RH  080%=      5-min Rain = 0
KBI1 140517Z 17010KT 10/07 A3028 RMK A01 T01030069  RH  080%=      5-min Rain = 0
KBI1 140518Z 18008G13KT 10/07 A3028 RMK A01 T01020069  RH  080%=      5-min Rain = 0
KBI1 140519Z 18011KT 10/07 A3029 RMK A01 T01020069  RH  080%=      5-min Rain = 0
KBI1 140520Z 18011KT 10/07 A3029 RMK A01 T01020069  RH  080%=      5-min Rain = 0
KBI1 140521Z 18010KT 10/07 A3029 RMK A01 T01020069  RH  080%=      5-min Rain = 0
KBI1 140522Z 17009KT 10/07 A3029 RMK A01 T01020069  RH  080%=      5-min Rain = 0
KBI1 140523Z 18007KT 10/07 A3029 RMK A01 T01020069  RH  080%=      5-min Rain = 0
KBI1 140524Z 18008KT 10/07 A3029 RMK A01 T01010068  RH  080%=      5-min Rain = 0
KBI1 140525Z 18009KT 10/07 A3029 RMK A01 T01010069  RH  080%=      5-min Rain = 0
KBI1 140526Z 18007KT 10/07 A3029 RMK A01 T01010069  RH  080%=      5-min Rain = 0
KBI1 140527Z 17008KT 10/07 A3029 RMK A01 T01010068  RH  080%=      5-min Rain = 0
KBI1 140528Z 17008KT 10/07 A3029 RMK A01 T01000068  RH  080%=      5-min Rain = 0
KBI1 140529Z 18007KT 10/07 A3028 RMK A01 T01000068  RH  080%=      5-min Rain = 0
KBI1 140530Z 17006KT 10/07 A3028 RMK A01 T01000068  RH  080%=      5-min Rain = 0
KBI1 140531Z 17007KT 10/07 A3028 RMK A01 T01000068  RH  081%=      5-min Rain = 0
KBI1 140532Z 17007KT 10/07 A3028 RMK A01 T01000068  RH  081%=      5-min Rain = 0
KBI1 140533Z 17008KT 10/07 A3028 RMK A01 T01000068  RH  081%=      5-min Rain = 0
KBI1 140534Z 17008KT 10/07 A3028 RMK A01 T00990068  RH  081%=      5-min Rain = 0
KBI1 140535Z 17008KT 10/07 A3028 RMK A01 T00990068  RH  081%=      5-min Rain = 0
KBI1 140536Z 17008KT 10/07 A3028 RMK A01 T00990068  RH  081%=      5-min Rain = 0
KBI1 140537Z 17010KT 10/07 A3028 RMK A01 T00980067  RH  081%=      5-min Rain = 0
KBI1 140538Z 17010KT 10/07 A3028 RMK A01 T00980067  RH  081%=      5-min Rain = 0
KBI1 140539Z 17009KT 10/07 A3028 RMK A01 T00980067  RH  081%=      5-min Rain = 0
KBI1 140540Z 17009KT 10/07 A3028 RMK A01 T00980067  RH  081%=      5-min Rain = 0
KBI1 140541Z 17010KT 10/07 A3028 RMK A01 T00980067  RH  081%=      5-min Rain = 0
KBI1 140542Z 17010KT 10/07 A3028 RMK A01 T00980067  RH  081%=      5-min Rain = 0
KBI1 140543Z 17010KT 10/07 A3028 RMK A01 T00970067  RH  081%=      5-min Rain = 0
KBI1 140544Z 17010KT 10/07 A3028 RMK A01 T00970067  RH  081%=      5-min Rain = 0
KBI1 140545Z 17011KT 10/07 A3028 RMK A01 T00970067  RH  082%=      5-min Rain = 0
KBI1 140546Z 17012KT 10/07 A3028 RMK A01 T00970067  RH  082%=      5-min Rain = 0
KBI1 140547Z 17011KT 10/07 A3027 RMK A01 T00970067  RH  082%=      5-min Rain = 0
KBI1 140548Z 17012KT 10/07 A3028 RMK A01 T00970067  RH  082%=      5-min Rain = 0
KBI1 140549Z 17010KT 10/07 A3028 RMK A01 T00970067  RH  082%=      5-min Rain = 0
KBI1 140550Z 17011KT 10/07 A3028 RMK A01 T00970067  RH  082%=      5-min Rain = 0
KBI1 140551Z 17010KT 10/07 A3028 RMK A01 T00970067  RH  082%=      5-min Rain = 0
KBI1 140552Z 17011KT 10/07 A3028 RMK A01 T00960067  RH  082%=      5-min Rain = 0
KBI1 140553Z 17011KT 10/07 A3028 RMK A01 T00970067  RH  082%=      5-min Rain = 0
KBI1 140554Z 17011KT 10/07 A3027 RMK A01 T00970067  RH  082%=      5-min Rain = 0
KBI1 140555Z 17011KT 10/07 A3027 RMK A01 T00960067  RH  082%=      5-min Rain = 0
KBI1 140556Z 17010KT 10/07 A3028 RMK A01 T00960067  RH  082%=      5-min Rain = 0
KBI1 140557Z 17010KT 10/07 A3028 RMK A01 T00960067  RH  082%=      5-min Rain = 0
KBI1 140558Z 17011KT 10/07 A3028 RMK A01 T00960067  RH  082%=      5-min Rain = 0
KBI1 140559Z 17011KT 10/07 A3028 RMK A01 T00950066  RH  082%=      5-min Rain = 0

Page generated in 0.1252 seconds.